Time,TemperatureF,DewpointF,PressureIn,WindDirection,WindDirectionDegrees,WindSpeedMPH,WindSpeedGustMPH,Humidity,HourlyPrecipIn,Conditions,Clouds,dailyrainin,SoftwareType,DateUTC
2013-07-11 00:03:00,58.7,49.7,30.04,North,0,0.9,4.0,72,0.00,,,0.00,WUHU216HW,2013-07-11 07:03:00,
2013-07-11 00:04:00,58.7,49.7,30.04,North,0,0.9,4.0,72,0.00,,,0.00,WUHU216HW,2013-07-11 07:04:00,
2013-07-11 00:08:00,58.7,49.7,30.04,NNW,338,3.4,4.5,72,0.00,,,0.00,WUHU216HW,2013-07-11 07:08:00,
2013-07-11 00:09:00,58.5,49.5,30.03,NNE,23,2.9,4.5,72,0.00,,,0.00,WUHU216HW,2013-07-11 07:09:00,
2013-07-11 00:10:00,58.5,49.5,30.03,NW,315,2.5,4.5,72,0.00,,,0.00,WUHU216HW,2013-07-11 07:10:00,
2013-07-11 00:13:00,58.5,49.5,30.04,WNW,293,3.1,4.5,72,0.00,,,0.00,WUHU216HW,2013-07-11 07:13:00,
2013-07-11 00:14:00,58.5,49.5,30.04,WSW,248,0.7,4.5,72,0.00,,,0.00,WUHU216HW,2013-07-11 07:14:00,
2013-07-11 00:15:00,58.5,49.5,30.04,WSW,248,0.9,4.5,72,0.00,,,0.00,WUHU216HW,2013-07-11 07:15:00,
2013-07-11 00:18:00,58.3,49.3,30.04,SW,225,0.9,4.5,72,0.00,,,0.00,WUHU216HW,2013-07-11 07:18:00,
2013-07-11 00:19:00,58.3,49.3,30.04,SW,225,0.9,4.5,72,0.00,,,0.00,WUHU216HW,2013-07-11 07:19:00,
2013-07-11 00:20:00,58.3,49.0,30.04,WNW,293,1.1,4.5,71,0.00,,,0.00,WUHU216HW,2013-07-11 07:20:00,
2013-07-11 00:23:00,58.3,49.3,30.04,NW,315,1.1,3.1,72,0.00,,,0.00,WUHU216HW,2013-07-11 07:23:00,
2013-07-11 00:24:00,58.3,49.3,30.04,NW,315,1.3,2.5,72,0.00,,,0.00,WUHU216HW,2013-07-11 07:24:00,
2013-07-11 00:25:00,58.3,49.3,30.04,WNW,293,0.9,2.5,72,0.00,,,0.00,WUHU216HW,2013-07-11 07:25:00,
2013-07-11 00:28:00,58.3,49.7,30.04,NNW,338,4.5,4.5,73,0.00,,,0.00,WUHU216HW,2013-07-11 07:28:00,
2013-07-11 00:29:00,58.3,49.7,30.04,NW,315,4.0,4.5,73,0.00,,,0.00,WUHU216HW,2013-07-11 07:29:00,
2013-07-11 00:30:00,58.3,49.7,30.04,North,0,3.8,5.6,73,0.00,,,0.00,WUHU216HW,2013-07-11 07:30:00,
2013-07-11 00:33:00,58.3,49.3,30.04,NW,315,2.5,5.6,72,0.00,,,0.00,WUHU216HW,2013-07-11 07:33:00,
2013-07-11 00:34:00,58.3,49.7,30.04,NW,315,2.5,5.6,73,0.00,,,0.00,WUHU216HW,2013-07-11 07:34:00,
2013-07-11 00:35:00,58.3,49.7,30.04,NNW,338,3.6,5.6,73,0.00,,,0.00,WUHU216HW,2013-07-11 07:35:00,
2013-07-11 00:39:00,58.3,49.3,30.04,WNW,293,3.4,5.6,72,0.00,,,0.00,WUHU216HW,2013-07-11 07:39:00,
2013-07-11 00:40:00,58.3,49.3,30.04,NNW,338,2.5,5.4,72,0.00,,,0.00,WUHU216HW,2013-07-11 07:40:00,
2013-07-11 00:44:00,58.1,49.1,30.04,NW,315,2.7,5.4,72,0.00,,,0.00,WUHU216HW,2013-07-11 07:44:00,
2013-07-11 00:45:00,58.1,49.5,30.04,NNE,23,4.7,5.4,73,0.00,,,0.00,WUHU216HW,2013-07-11 07:45:00,
2013-07-11 00:49:00,58.1,48.8,30.04,NE,45,2.9,4.7,71,0.00,,,0.00,WUHU216HW,2013-07-11 07:49:00,
2013-07-11 00:50:00,58.1,49.5,30.04,NNW,338,6.5,6.5,73,0.00,,,0.00,WUHU216HW,2013-07-11 07:50:00,
2013-07-11 00:54:00,58.1,49.5,30.04,WNW,293,1.6,6.7,73,0.00,,,0.00,WUHU216HW,2013-07-11 07:54:00,
2013-07-11 00:55:00,58.1,49.5,30.04,NNW,338,2.5,6.7,73,0.00,,,0.00,WUHU216HW,2013-07-11 07:55:00,
2013-07-11 00:59:00,58.0,48.6,30.04,WNW,293,3.4,6.7,71,0.00,,,0.00,WUHU216HW,2013-07-11 07:59:00,
2013-07-11 01:00:00,58.0,48.6,30.04,NNW,338,2.5,6.7,71,0.00,,,0.00,WUHU216HW,2013-07-11 08:00:00,
2013-07-11 01:04:00,58.0,48.6,30.04,North,0,2.0,5.1,71,0.00,,,0.00,WUHU216HW,2013-07-11 08:04:00,
2013-07-11 01:05:00,58.0,48.6,30.04,East,90,1.8,5.1,71,0.00,,,0.00,WUHU216HW,2013-07-11 08:05:00,
2013-07-11 01:09:00,58.0,49.0,30.04,NNW,338,0.0,5.1,72,0.00,,,0.00,WUHU216HW,2013-07-11 08:09:00,
2013-07-11 01:10:00,58.0,49.0,30.04,NNW,338,0.4,5.1,72,0.00,,,0.00,WUHU216HW,2013-07-11 08:10:00,
2013-07-11 01:11:00,58.0,48.6,30.04,NE,45,1.3,5.1,71,0.00,,,0.00,WUHU216HW,2013-07-11 08:11:00,
2013-07-11 01:14:00,58.0,49.0,30.04,North,0,1.8,2.2,72,0.00,,,0.00,WUHU216HW,2013-07-11 08:14:00,
2013-07-11 01:15:00,58.0,49.0,30.04,NW,315,0.9,2.2,72,0.00,,,0.00,WUHU216HW,2013-07-11 08:15:00,
2013-07-11 01:16:00,58.0,49.0,30.04,NNE,23,1.8,2.2,72,0.00,,,0.00,WUHU216HW,2013-07-11 08:16:00,
2013-07-11 01:19:00,58.0,49.0,30.04,WNW,293,1.1,3.6,72,0.00,,,0.00,WUHU216HW,2013-07-11 08:19:00,
2013-07-11 01:20:00,58.0,49.0,30.05,WNW,293,1.1,3.6,72,0.00,,,0.00,WUHU216HW,2013-07-11 08:20:00,
2013-07-11 01:21:00,58.0,49.0,30.05,WNW,293,1.1,3.6,72,0.00,,,0.00,WUHU216HW,2013-07-11 08:21:00,
2013-07-11 01:24:00,58.0,49.0,30.04,NW,315,2.5,3.6,72,0.00,,,0.00,WUHU216HW,2013-07-11 08:24:00,
2013-07-11 01:25:00,58.0,48.6,30.04,WNW,293,3.1,3.6,71,0.00,,,0.00,WUHU216HW,2013-07-11 08:25:00,
2013-07-11 01:26:00,58.0,49.0,30.04,NNW,338,1.8,3.6,72,0.00,,,0.00,WUHU216HW,2013-07-11 08:26:00,
2013-07-11 01:29:00,58.0,49.0,30.04,NW,315,3.1,4.7,72,0.00,,,0.00,WUHU216HW,2013-07-11 08:29:00,
2013-07-11 01:30:00,58.0,49.0,30.04,NW,315,3.1,4.7,72,0.00,,,0.00,WUHU216HW,2013-07-11 08:30:00,
2013-07-11 01:31:00,58.0,49.0,30.05,NW,315,3.4,4.7,72,0.00,,,0.00,WUHU216HW,2013-07-11 08:31:00,
2013-07-11 01:34:00,58.0,49.0,30.04,NNW,338,1.8,4.7,72,0.00,,,0.00,WUHU216HW,2013-07-11 08:34:00,
2013-07-11 01:35:00,58.0,48.6,30.04,NNW,338,2.5,4.7,71,0.00,,,0.00,WUHU216HW,2013-07-11 08:35:00,
2013-07-11 01:36:00,58.0,48.6,30.04,NNW,338,2.5,4.7,71,0.00,,,0.00,WUHU216HW,2013-07-11 08:36:00,
2013-07-11 01:39:00,58.0,49.0,30.04,NNW,338,2.5,3.4,72,0.00,,,0.00,WUHU216HW,2013-07-11 08:39:00,
2013-07-11 01:40:00,57.8,48.4,30.04,West,270,1.3,3.4,71,0.00,,,0.00,WUHU216HW,2013-07-11 08:40:00,
2013-07-11 01:41:00,58.0,49.3,30.04,NNW,338,2.2,3.4,73,0.00,,,0.00,WUHU216HW,2013-07-11 08:41:00,
2013-07-11 01:44:00,57.8,48.8,30.04,North,0,2.0,3.4,72,0.00,,,0.00,WUHU216HW,2013-07-11 08:44:00,
2013-07-11 01:45:00,57.8,49.1,30.04,NW,315,3.1,3.4,73,0.00,,,0.00,WUHU216HW,2013-07-11 08:45:00,
2013-07-11 01:46:00,57.8,48.8,30.04,North,0,2.5,3.4,72,0.00,,,0.00,WUHU216HW,2013-07-11 08:46:00,
2013-07-11 01:49:00,57.8,48.8,30.04,WNW,293,1.1,3.1,72,0.00,,,0.00,WUHU216HW,2013-07-11 08:49:00,
2013-07-11 01:51:00,57.8,48.4,30.04,NW,315,0.0,3.1,71,0.00,,,0.00,WUHU216HW,2013-07-11 08:51:00,
2013-07-11 01:54:00,58.0,49.0,30.05,NW,315,1.1,3.4,72,0.00,,,0.00,WUHU216HW,2013-07-11 08:54:00,
2013-07-11 01:56:00,57.8,48.8,30.04,NW,315,0.9,3.4,72,0.00,,,0.00,WUHU216HW,2013-07-11 08:56:00,
2013-07-11 01:59:00,57.8,48.8,30.05,NNW,338,1.1,5.4,72,0.00,,,0.00,WUHU216HW,2013-07-11 08:59:00,
2013-07-11 02:01:00,57.8,48.8,30.05,North,0,0.7,5.4,72,0.00,,,0.00,WUHU216HW,2013-07-11 09:01:00,
2013-07-11 02:05:00,57.8,48.4,30.05,NW,315,1.1,5.4,71,0.00,,,0.00,WUHU216HW,2013-07-11 09:05:00,
2013-07-11 02:06:00,57.8,48.4,30.05,North,0,2.9,5.4,71,0.00,,,0.00,WUHU216HW,2013-07-11 09:06:00,
2013-07-11 02:10:00,57.6,48.2,30.05,NNE,23,0.0,4.7,71,0.00,,,0.00,WUHU216HW,2013-07-11 09:10:00,
2013-07-11 02:11:00,57.6,48.2,30.05,North,0,0.7,4.7,71,0.00,,,0.00,WUHU216HW,2013-07-11 09:11:00,
2013-07-11 02:15:00,57.6,48.2,30.05,NNW,338,1.3,2.9,71,0.00,,,0.00,WUHU216HW,2013-07-11 09:15:00,
2013-07-11 02:16:00,57.6,48.6,30.05,NW,315,1.1,2.9,72,0.00,,,0.00,WUHU216HW,2013-07-11 09:16:00,
2013-07-11 02:20:00,57.6,48.6,30.05,NNW,338,1.8,2.5,72,0.00,,,0.00,WUHU216HW,2013-07-11 09:20:00,
2013-07-11 02:21:00,57.6,48.6,30.05,North,0,0.9,2.5,72,0.00,,,0.00,WUHU216HW,2013-07-11 09:21:00,
2013-07-11 02:22:00,57.6,48.6,30.05,North,0,2.9,2.9,72,0.00,,,0.00,WUHU216HW,2013-07-11 09:22:00,
2013-07-11 02:25:00,57.6,48.6,30.05,ENE,68,0.4,2.9,72,0.00,,,0.00,WUHU216HW,2013-07-11 09:25:00,
2013-07-11 02:26:00,57.6,48.6,30.05,NNW,338,2.9,2.9,72,0.00,,,0.00,WUHU216HW,2013-07-11 09:26:00,
2013-07-11 02:27:00,57.6,48.6,30.05,NW,315,1.8,2.9,72,0.00,,,0.00,WUHU216HW,2013-07-11 09:27:00,
2013-07-11 02:30:00,57.6,48.6,30.05,NNE,23,0.7,3.8,72,0.00,,,0.00,WUHU216HW,2013-07-11 09:30:00,
2013-07-11 02:31:00,57.6,48.6,30.05,NNE,23,0.0,3.8,72,0.00,,,0.00,WUHU216HW,2013-07-11 09:31:00,
2013-07-11 02:32:00,57.6,48.2,30.05,North,0,0.0,3.8,71,0.00,,,0.00,WUHU216HW,2013-07-11 09:32:00,
2013-07-11 02:35:00,57.6,48.2,30.05,North,0,0.9,3.8,71,0.00,,,0.00,WUHU216HW,2013-07-11 09:35:00,
2013-07-11 02:36:00,57.6,48.2,30.05,NNW,338,0.7,3.8,71,0.00,,,0.00,WUHU216HW,2013-07-11 09:36:00,
2013-07-11 02:37:00,57.6,48.6,30.05,NNW,338,0.4,3.8,72,0.00,,,0.00,WUHU216HW,2013-07-11 09:37:00,
2013-07-11 02:40:00,57.4,48.4,30.05,NNW,338,0.4,2.5,72,0.00,,,0.00,WUHU216HW,2013-07-11 09:40:00,
2013-07-11 02:41:00,57.4,48.4,30.05,NNW,338,0.0,2.5,72,0.00,,,0.00,WUHU216HW,2013-07-11 09:41:00,
2013-07-11 02:42:00,57.4,48.4,30.05,SSE,158,0.0,2.5,72,0.00,,,0.00,WUHU216HW,2013-07-11 09:42:00,
2013-07-11 02:45:00,57.4,48.4,30.05,SSE,158,0.7,2.5,72,0.00,,,0.00,WUHU216HW,2013-07-11 09:45:00,
2013-07-11 02:46:00,57.4,48.4,30.05,NE,45,1.1,2.5,72,0.00,,,0.00,WUHU216HW,2013-07-11 09:46:00,
2013-07-11 02:47:00,57.4,48.4,30.05,West,270,0.4,2.5,72,0.00,,,0.00,WUHU216HW,2013-07-11 09:47:00,
2013-07-11 02:50:00,57.4,48.4,30.05,SSW,203,1.1,1.1,72,0.00,,,0.00,WUHU216HW,2013-07-11 09:50:00,
2013-07-11 02:51:00,57.2,48.2,30.05,SSW,203,1.1,1.1,72,0.00,,,0.00,WUHU216HW,2013-07-11 09:51:00,
2013-07-11 02:52:00,57.2,48.2,30.05,SSW,203,1.1,1.1,72,0.00,,,0.00,WUHU216HW,2013-07-11 09:52:00,
2013-07-11 02:55:00,57.2,48.2,30.06,NE,45,0.0,2.2,72,0.00,,,0.00,WUHU216HW,2013-07-11 09:55:00,
2013-07-11 02:56:00,57.2,48.2,30.05,North,0,0.0,2.2,72,0.00,,,0.00,WUHU216HW,2013-07-11 09:56:00,
2013-07-11 02:57:00,57.2,48.2,30.05,North,0,0.0,2.2,72,0.00,,,0.00,WUHU216HW,2013-07-11 09:57:00,
2013-07-11 03:00:00,57.2,48.2,30.05,NE,45,0.4,2.2,72,0.00,,,0.00,WUHU216HW,2013-07-11 10:00:00,
2013-07-11 03:01:00,57.2,48.2,30.05,NE,45,0.4,2.2,72,0.00,,,0.00,WUHU216HW,2013-07-11 10:01:00,
2013-07-11 03:02:00,57.2,48.2,30.05,NE,45,0.4,2.2,72,0.00,,,0.00,WUHU216HW,2013-07-11 10:02:00,
2013-07-11 03:05:00,57.2,48.2,30.05,NW,315,0.0,1.8,72,0.00,,,0.00,WUHU216HW,2013-07-11 10:05:00,
2013-07-11 03:06:00,57.2,48.6,30.05,NW,315,0.0,1.8,73,0.00,,,0.00,WUHU216HW,2013-07-11 10:06:00,
2013-07-11 03:07:00,57.2,48.6,30.05,North,0,0.2,1.8,73,0.00,,,0.00,WUHU216HW,2013-07-11 10:07:00,
2013-07-11 03:11:00,57.2,48.6,30.06,WNW,293,0.0,1.1,73,0.00,,,0.00,WUHU216HW,2013-07-11 10:11:00,
2013-07-11 03:12:00,57.2,48.2,30.05,NW,315,0.0,1.1,72,0.00,,,0.00,WUHU216HW,2013-07-11 10:12:00,
2013-07-11 03:16:00,57.2,48.2,30.06,NNW,338,1.1,1.1,72,0.00,,,0.00,WUHU216HW,2013-07-11 10:16:00,
2013-07-11 03:17:00,57.2,48.2,30.06,NNW,338,0.2,1.1,72,0.00,,,0.00,WUHU216HW,2013-07-11 10:17:00,
2013-07-11 03:21:00,57.2,48.6,30.06,WNW,293,0.0,1.1,73,0.00,,,0.00,WUHU216HW,2013-07-11 10:21:00,
2013-07-11 03:22:00,57.2,48.6,30.05,SSE,158,0.0,1.1,73,0.00,,,0.00,WUHU216HW,2013-07-11 10:22:00,
2013-07-11 03:26:00,57.2,48.6,30.05,North,0,1.1,1.6,73,0.00,,,0.00,WUHU216HW,2013-07-11 10:26:00,
2013-07-11 03:27:00,57.2,48.6,30.05,NNW,338,0.2,1.6,73,0.00,,,0.00,WUHU216HW,2013-07-11 10:27:00,
2013-07-11 03:28:00,57.2,48.6,30.05,NNW,338,0.2,1.6,73,0.00,,,0.00,WUHU216HW,2013-07-11 10:28:00,
2013-07-11 03:31:00,57.2,48.6,30.05,South,180,1.8,1.8,73,0.00,,,0.00,WUHU216HW,2013-07-11 10:31:00,
2013-07-11 03:32:00,57.2,48.6,30.06,NNW,338,1.1,1.8,73,0.00,,,0.00,WUHU216HW,2013-07-11 10:32:00,
2013-07-11 03:33:00,57.2,48.6,30.06,NNW,338,1.1,1.8,73,0.00,,,0.00,WUHU216HW,2013-07-11 10:33:00,
2013-07-11 03:36:00,57.2,48.6,30.06,NE,45,0.0,1.8,73,0.00,,,0.00,WUHU216HW,2013-07-11 10:36:00,
2013-07-11 03:37:00,57.2,48.6,30.06,NE,45,0.4,1.8,73,0.00,,,0.00,WUHU216HW,2013-07-11 10:37:00,
2013-07-11 03:38:00,57.2,48.6,30.06,NE,45,0.0,1.8,73,0.00,,,0.00,WUHU216HW,2013-07-11 10:38:00,
2013-07-11 03:41:00,57.2,48.6,30.06,SSW,203,0.9,1.8,73,0.00,,,0.00,WUHU216HW,2013-07-11 10:41:00,
2013-07-11 03:42:00,57.2,48.6,30.06,SSW,203,0.2,1.8,73,0.00,,,0.00,WUHU216HW,2013-07-11 10:42:00,
2013-07-11 03:43:00,57.2,48.6,30.06,WNW,293,1.1,1.8,73,0.00,,,0.00,WUHU216HW,2013-07-11 10:43:00,
2013-07-11 03:46:00,57.2,48.6,30.06,SE,135,0.2,1.8,73,0.00,,,0.00,WUHU216HW,2013-07-11 10:46:00,
2013-07-11 03:47:00,57.1,48.4,30.06,SSE,158,0.9,1.8,73,0.00,,,0.00,WUHU216HW,2013-07-11 10:47:00,
2013-07-11 03:48:00,57.2,48.6,30.06,ENE,68,0.0,1.8,73,0.00,,,0.00,WUHU216HW,2013-07-11 10:48:00,
2013-07-11 03:51:00,57.1,48.4,30.06,SE,135,0.7,1.1,73,0.00,,,0.00,WUHU216HW,2013-07-11 10:51:00,
2013-07-11 03:52:00,57.1,48.4,30.06,SSE,158,0.2,1.1,73,0.00,,,0.00,WUHU216HW,2013-07-11 10:52:00,
2013-07-11 03:53:00,57.1,48.4,30.07,NE,45,0.2,1.1,73,0.00,,,0.00,WUHU216HW,2013-07-11 10:53:00,
2013-07-11 03:56:00,57.1,48.4,30.06,WSW,248,0.0,4.3,73,0.00,,,0.00,WUHU216HW,2013-07-11 10:56:00,
2013-07-11 03:57:00,57.1,48.4,30.06,WSW,248,0.0,4.3,73,0.00,,,0.00,WUHU216HW,2013-07-11 10:57:00,
2013-07-11 03:58:00,57.1,48.4,30.06,WNW,293,0.2,4.3,73,0.00,,,0.00,WUHU216HW,2013-07-11 10:58:00,
2013-07-11 04:01:00,57.1,48.4,30.06,SSE,158,0.7,4.3,73,0.00,,,0.00,WUHU216HW,2013-07-11 11:01:00,
2013-07-11 04:02:00,57.1,48.4,30.06,South,180,0.2,4.3,73,0.00,,,0.00,WUHU216HW,2013-07-11 11:02:00,
2013-07-11 04:03:00,57.1,48.4,30.06,North,0,0.4,4.3,73,0.00,,,0.00,WUHU216HW,2013-07-11 11:03:00,
2013-07-11 04:06:00,57.1,48.4,30.06,SSE,158,1.1,1.1,73,0.00,,,0.00,WUHU216HW,2013-07-11 11:06:00,
2013-07-11 04:07:00,57.1,48.4,30.06,SSE,158,0.0,1.1,73,0.00,,,0.00,WUHU216HW,2013-07-11 11:07:00,
2013-07-11 04:08:00,57.1,48.4,30.06,SSE,158,0.0,1.1,73,0.00,,,0.00,WUHU216HW,2013-07-11 11:08:00,
2013-07-11 04:09:00,57.1,48.4,30.06,ESE,113,1.8,1.8,73,0.00,,,0.00,WUHU216HW,2013-07-11 11:09:00,
2013-07-11 04:11:00,56.9,48.2,30.07,SE,135,0.4,1.8,73,0.00,,,0.00,WUHU216HW,2013-07-11 11:11:00,
2013-07-11 04:12:00,57.1,48.4,30.06,SE,135,0.0,1.8,73,0.00,,,0.00,WUHU216HW,2013-07-11 11:12:00,
2013-07-11 04:13:00,56.9,48.2,30.06,SE,135,0.0,1.8,73,0.00,,,0.00,WUHU216HW,2013-07-11 11:13:00,
2013-07-11 04:14:00,57.1,48.4,30.07,WSW,248,0.0,1.8,73,0.00,,,0.00,WUHU216HW,2013-07-11 11:14:00,
2013-07-11 04:17:00,57.1,48.4,30.07,SSW,203,0.7,1.8,73,0.00,,,0.00,WUHU216HW,2013-07-11 11:17:00,
2013-07-11 04:18:00,57.1,48.4,30.07,East,90,0.0,1.8,73,0.00,,,0.00,WUHU216HW,2013-07-11 11:18:00,
2013-07-11 04:19:00,57.1,48.4,30.06,NW,315,1.1,1.8,73,0.00,,,0.00,WUHU216HW,2013-07-11 11:19:00,
2013-07-11 04:22:00,57.1,48.4,30.07,SSW,203,0.0,1.6,73,0.00,,,0.00,WUHU216HW,2013-07-11 11:22:00,
2013-07-11 04:23:00,57.1,48.4,30.07,SE,135,0.0,1.6,73,0.00,,,0.00,WUHU216HW,2013-07-11 11:23:00,
2013-07-11 04:24:00,57.1,48.4,30.07,NNW,338,0.0,1.6,73,0.00,,,0.00,WUHU216HW,2013-07-11 11:24:00,
2013-07-11 04:27:00,57.1,48.4,30.07,South,180,0.0,1.6,73,0.00,,,0.00,WUHU216HW,2013-07-11 11:27:00,
2013-07-11 04:28:00,57.1,48.4,30.07,South,180,0.0,1.6,73,0.00,,,0.00,WUHU216HW,2013-07-11 11:28:00,
2013-07-11 04:29:00,56.9,48.2,30.07,SE,135,0.7,1.1,73,0.00,,,0.00,WUHU216HW,2013-07-11 11:29:00,
2013-07-11 04:32:00,57.1,48.4,30.07,SE,135,1.3,1.3,73,0.00,,,0.00,WUHU216HW,2013-07-11 11:32:00,
2013-07-11 04:33:00,56.9,48.2,30.07,South,180,0.4,1.3,73,0.00,,,0.00,WUHU216HW,2013-07-11 11:33:00,
2013-07-11 04:34:00,57.1,48.4,30.07,ESE,113,0.0,1.3,73,0.00,,,0.00,WUHU216HW,2013-07-11 11:34:00,
2013-07-11 04:37:00,56.9,48.6,30.07,SSE,158,0.0,1.3,74,0.00,,,0.00,WUHU216HW,2013-07-11 11:37:00,
2013-07-11 04:38:00,56.9,48.6,30.07,West,270,0.4,1.3,74,0.00,,,0.00,WUHU216HW,2013-07-11 11:38:00,
2013-07-11 04:39:00,57.1,48.8,30.07,SW,225,1.1,1.3,74,0.00,,,0.00,WUHU216HW,2013-07-11 11:39:00,
2013-07-11 04:42:00,57.1,48.4,30.07,NNE,23,1.6,1.6,73,0.00,,,0.00,WUHU216HW,2013-07-11 11:42:00,
2013-07-11 04:43:00,57.1,48.4,30.07,NNE,23,0.9,1.6,73,0.00,,,0.00,WUHU216HW,2013-07-11 11:43:00,
2013-07-11 04:44:00,56.9,48.2,30.07,NE,45,0.4,1.6,73,0.00,,,0.00,WUHU216HW,2013-07-11 11:44:00,
2013-07-11 04:47:00,56.9,48.2,30.07,South,180,0.4,1.6,73,0.00,,,0.00,WUHU216HW,2013-07-11 11:47:00,
2013-07-11 04:48:00,56.9,48.2,30.07,SSE,158,0.7,1.6,73,0.00,,,0.00,WUHU216HW,2013-07-11 11:48:00,
2013-07-11 04:49:00,56.9,48.2,30.07,SSW,203,0.0,1.6,73,0.00,,,0.00,WUHU216HW,2013-07-11 11:49:00,
2013-07-11 04:52:00,56.9,48.2,30.08,East,90,0.4,1.3,73,0.00,,,0.00,WUHU216HW,2013-07-11 11:52:00,
2013-07-11 04:53:00,56.9,48.2,30.08,East,90,0.0,0.9,73,0.00,,,0.00,WUHU216HW,2013-07-11 11:53:00,
2013-07-11 04:54:00,56.9,48.2,30.08,East,90,0.0,0.9,73,0.00,,,0.00,WUHU216HW,2013-07-11 11:54:00,
2013-07-11 04:57:00,56.9,48.2,30.08,SE,135,1.1,1.1,73,0.00,,,0.00,WUHU216HW,2013-07-11 11:57:00,
2013-07-11 04:58:00,56.9,48.2,30.08,ENE,68,1.3,1.3,73,0.00,,,0.00,WUHU216HW,2013-07-11 11:58:00,
2013-07-11 04:59:00,56.9,48.2,30.08,ENE,68,1.3,1.3,73,0.00,,,0.00,WUHU216HW,2013-07-11 11:59:00,
2013-07-11 05:02:00,56.9,48.2,30.08,SSE,158,0.0,1.3,73,0.00,,,0.00,WUHU216HW,2013-07-11 12:02:00,
2013-07-11 05:03:00,56.9,48.2,30.08,SSE,158,0.0,1.3,73,0.00,,,0.00,WUHU216HW,2013-07-11 12:03:00,
2013-07-11 05:04:00,56.7,48.1,30.08,SSE,158,0.0,1.3,73,0.00,,,0.00,WUHU216HW,2013-07-11 12:04:00,
2013-07-11 05:07:00,56.7,48.1,30.08,North,0,0.0,1.3,73,0.00,,,0.00,WUHU216HW,2013-07-11 12:07:00,
2013-07-11 05:08:00,56.7,48.1,30.08,North,0,0.0,1.3,73,0.00,,,0.00,WUHU216HW,2013-07-11 12:08:00,
2013-07-11 05:09:00,56.7,48.1,30.08,North,0,0.0,1.3,73,0.00,,,0.00,WUHU216HW,2013-07-11 12:09:00,
2013-07-11 05:12:00,56.7,48.1,30.08,East,90,0.0,1.1,73,0.00,,,0.00,WUHU216HW,2013-07-11 12:12:00,
2013-07-11 05:13:00,56.7,48.1,30.08,East,90,0.0,1.1,73,0.00,,,0.00,WUHU216HW,2013-07-11 12:13:00,
2013-07-11 05:14:00,56.7,48.1,30.08,East,90,0.0,1.1,73,0.00,,,0.00,WUHU216HW,2013-07-11 12:14:00,
2013-07-11 05:17:00,56.5,48.0,30.08,ESE,113,0.0,0.7,73,0.00,,,0.00,WUHU216HW,2013-07-11 12:17:00,
2013-07-11 05:18:00,56.7,48.4,30.08,South,180,0.0,0.7,74,0.00,,,0.00,WUHU216HW,2013-07-11 12:18:00,
2013-07-11 05:19:00,56.7,48.4,30.08,SSW,203,0.0,0.7,74,0.00,,,0.00,WUHU216HW,2013-07-11 12:19:00,
2013-07-11 05:22:00,56.5,48.0,30.08,SE,135,0.0,1.3,73,0.00,,,0.00,WUHU216HW,2013-07-11 12:22:00,
2013-07-11 05:24:00,56.7,48.1,30.08,East,90,0.0,1.3,73,0.00,,,0.00,WUHU216HW,2013-07-11 12:24:00,
2013-07-11 05:25:00,56.7,48.4,30.08,ESE,113,0.0,1.3,74,0.00,,,0.00,WUHU216HW,2013-07-11 12:25:00,
2013-07-11 05:27:00,56.7,48.4,30.08,NE,45,0.4,1.3,74,0.00,,,0.00,WUHU216HW,2013-07-11 12:27:00,
2013-07-11 05:29:00,56.7,48.4,30.08,ESE,113,0.4,1.3,74,0.00,,,0.00,WUHU216HW,2013-07-11 12:29:00,
2013-07-11 05:30:00,56.7,48.1,30.08,ESE,113,0.0,1.1,73,0.00,,,0.00,WUHU216HW,2013-07-11 12:30:00,
2013-07-11 05:33:00,56.5,48.2,30.09,SSE,158,0.9,2.2,74,0.00,,,0.00,WUHU216HW,2013-07-11 12:33:00,
2013-07-11 05:34:00,56.7,48.4,30.09,ESE,113,0.4,2.2,74,0.00,,,0.00,WUHU216HW,2013-07-11 12:34:00,
2013-07-11 05:35:00,56.7,48.4,30.08,SE,135,0.0,2.2,74,0.00,,,0.00,WUHU216HW,2013-07-11 12:35:00,
2013-07-11 05:38:00,56.7,48.4,30.08,SSW,203,0.0,2.2,74,0.00,,,0.00,WUHU216HW,2013-07-11 12:38:00,
2013-07-11 05:39:00,56.5,48.2,30.08,SSE,158,0.0,2.2,74,0.00,,,0.00,WUHU216HW,2013-07-11 12:39:00,
2013-07-11 05:40:00,56.5,48.2,30.09,ESE,113,1.3,2.2,74,0.00,,,0.00,WUHU216HW,2013-07-11 12:40:00,
2013-07-11 05:43:00,56.5,48.2,30.09,ESE,113,0.0,1.3,74,0.00,,,0.00,WUHU216HW,2013-07-11 12:43:00,
2013-07-11 05:44:00,56.5,48.2,30.08,ESE,113,0.0,1.3,74,0.00,,,0.00,WUHU216HW,2013-07-11 12:44:00,
2013-07-11 05:45:00,56.5,48.2,30.09,ESE,113,0.0,1.3,74,0.00,,,0.00,WUHU216HW,2013-07-11 12:45:00,
2013-07-11 05:48:00,56.5,48.2,30.09,ESE,113,0.0,1.3,74,0.00,,,0.00,WUHU216HW,2013-07-11 12:48:00,
2013-07-11 05:49:00,56.5,48.2,30.09,ESE,113,0.0,1.3,74,0.00,,,0.00,WUHU216HW,2013-07-11 12:49:00,
2013-07-11 05:50:00,56.5,48.2,30.09,ESE,113,0.0,1.3,74,0.00,,,0.00,WUHU216HW,2013-07-11 12:50:00,
2013-07-11 05:53:00,56.5,48.2,30.09,ESE,113,0.0,0.0,74,0.00,,,0.00,WUHU216HW,2013-07-11 12:53:00,
2013-07-11 05:54:00,56.5,48.2,30.09,ESE,113,0.0,0.0,74,0.00,,,0.00,WUHU216HW,2013-07-11 12:54:00,
2013-07-11 05:55:00,56.5,48.2,30.09,SE,135,0.7,0.7,74,0.00,,,0.00,WUHU216HW,2013-07-11 12:55:00,
2013-07-11 05:58:00,56.5,48.2,30.09,East,90,0.0,0.7,74,0.00,,,0.00,WUHU216HW,2013-07-11 12:58:00,
2013-07-11 05:59:00,56.5,48.2,30.09,ESE,113,0.4,0.7,74,0.00,,,0.00,WUHU216HW,2013-07-11 12:59:00,
2013-07-11 06:00:00,56.5,48.2,30.09,SE,135,0.0,0.7,74,0.00,,,0.00,WUHU216HW,2013-07-11 13:00:00,
2013-07-11 06:01:00,56.7,48.4,30.09,SE,135,0.0,0.7,74,0.00,,,0.00,WUHU216HW,2013-07-11 13:01:00,
2013-07-11 06:04:00,56.7,48.4,30.09,South,180,0.0,0.7,74,0.00,,,0.00,WUHU216HW,2013-07-11 13:04:00,
2013-07-11 06:05:00,56.5,48.2,30.09,SE,135,0.0,0.7,74,0.00,,,0.00,WUHU216HW,2013-07-11 13:05:00,
2013-07-11 06:06:00,56.7,48.4,30.09,SE,135,0.0,0.7,74,0.00,,,0.00,WUHU216HW,2013-07-11 13:06:00,
2013-07-11 06:09:00,56.7,48.4,30.09,ESE,113,0.0,0.9,74,0.00,,,0.00,WUHU216HW,2013-07-11 13:09:00,
2013-07-11 06:11:00,56.7,48.4,30.09,ESE,113,0.0,0.9,74,0.00,,,0.00,WUHU216HW,2013-07-11 13:11:00,
2013-07-11 06:14:00,56.7,48.4,30.09,ESE,113,0.0,1.3,74,0.00,,,0.00,WUHU216HW,2013-07-11 13:14:00,
2013-07-11 06:15:00,56.7,48.4,30.09,East,90,0.0,1.3,74,0.00,,,0.00,WUHU216HW,2013-07-11 13:15:00,
2013-07-11 06:16:00,56.7,48.4,30.09,SE,135,0.0,1.3,74,0.00,,,0.00,WUHU216HW,2013-07-11 13:16:00,
2013-07-11 06:19:00,56.7,48.4,30.09,SE,135,0.0,1.3,74,0.00,,,0.00,WUHU216HW,2013-07-11 13:19:00,
2013-07-11 06:20:00,56.9,48.6,30.09,SE,135,0.0,1.3,74,0.00,,,0.00,WUHU216HW,2013-07-11 13:20:00,
2013-07-11 06:22:00,56.9,48.6,30.09,SE,135,0.0,1.3,74,0.00,,,0.00,WUHU216HW,2013-07-11 13:22:00,
2013-07-11 06:24:00,56.7,48.4,30.10,ESE,113,0.0,0.2,74,0.00,,,0.00,WUHU216HW,2013-07-11 13:24:00,
2013-07-11 06:25:00,56.7,48.4,30.09,ESE,113,0.0,0.2,74,0.00,,,0.00,WUHU216HW,2013-07-11 13:25:00,
2013-07-11 06:27:00,56.9,48.6,30.10,ESE,113,0.0,0.2,74,0.00,,,0.00,WUHU216HW,2013-07-11 13:27:00,
2013-07-11 06:29:00,56.9,48.6,30.10,NE,45,0.0,0.0,74,0.00,,,0.00,WUHU216HW,2013-07-11 13:29:00,
2013-07-11 06:30:00,56.9,48.6,30.10,NE,45,0.0,0.0,74,0.00,,,0.00,WUHU216HW,2013-07-11 13:30:00,
2013-07-11 06:32:00,56.9,48.6,30.10,ESE,113,0.0,0.0,74,0.00,,,0.00,WUHU216HW,2013-07-11 13:32:00,
2013-07-11 06:34:00,56.9,48.6,30.10,ESE,113,0.0,0.0,74,0.00,,,0.00,WUHU216HW,2013-07-11 13:34:00,
2013-07-11 06:35:00,56.9,48.6,30.10,East,90,0.0,0.0,74,0.00,,,0.00,WUHU216HW,2013-07-11 13:35:00,
2013-07-11 06:37:00,56.9,48.6,30.10,ESE,113,0.0,0.0,74,0.00,,,0.00,WUHU216HW,2013-07-11 13:37:00,
2013-07-11 06:40:00,56.9,48.6,30.10,East,90,0.4,1.1,74,0.00,,,0.00,WUHU216HW,2013-07-11 13:40:00,
2013-07-11 06:42:00,56.9,48.6,30.10,ESE,113,0.0,1.1,74,0.00,,,0.00,WUHU216HW,2013-07-11 13:42:00,
2013-07-11 06:43:00,56.9,48.6,30.10,ENE,68,0.4,1.1,74,0.00,,,0.00,WUHU216HW,2013-07-11 13:43:00,
2013-07-11 06:45:00,56.9,48.6,30.10,East,90,0.0,1.3,74,0.00,,,0.00,WUHU216HW,2013-07-11 13:45:00,
2013-07-11 06:47:00,56.9,48.6,30.10,SSE,158,0.2,1.3,74,0.00,,,0.00,WUHU216HW,2013-07-11 13:47:00,
2013-07-11 06:48:00,56.9,48.6,30.10,SSE,158,0.2,1.3,74,0.00,,,0.00,WUHU216HW,2013-07-11 13:48:00,
2013-07-11 06:50:00,56.9,48.6,30.10,ESE,113,1.3,1.8,74,0.00,,,0.00,WUHU216HW,2013-07-11 13:50:00,
2013-07-11 06:53:00,56.9,48.6,30.10,SE,135,0.2,1.8,74,0.00,,,0.00,WUHU216HW,2013-07-11 13:53:00,
2013-07-11 06:56:00,56.9,48.6,30.10,ESE,113,1.1,1.8,74,0.00,,,0.00,WUHU216HW,2013-07-11 13:56:00,
2013-07-11 06:58:00,57.1,48.8,30.10,ESE,113,0.0,1.8,74,0.00,,,0.00,WUHU216HW,2013-07-11 13:58:00,
2013-07-11 06:59:00,57.1,48.8,30.10,ESE,113,0.0,1.8,74,0.00,,,0.00,WUHU216HW,2013-07-11 13:59:00,
2013-07-11 07:01:00,57.1,48.8,30.10,ESE,113,0.0,1.1,74,0.00,,,0.00,WUHU216HW,2013-07-11 14:01:00,
2013-07-11 07:03:00,57.2,49.0,30.10,ESE,113,0.7,1.1,74,0.00,,,0.00,WUHU216HW,2013-07-11 14:03:00,
2013-07-11 07:04:00,57.2,49.0,30.11,NE,45,1.8,2.2,74,0.00,,,0.00,WUHU216HW,2013-07-11 14:04:00,
2013-07-11 07:06:00,57.2,49.0,30.10,SE,135,1.8,2.7,74,0.00,,,0.00,WUHU216HW,2013-07-11 14:06:00,
2013-07-11 07:07:00,57.1,48.8,30.10,SE,135,1.1,2.7,74,0.00,,,0.00,WUHU216HW,2013-07-11 14:07:00,
2013-07-11 07:08:00,57.1,48.8,30.10,SE,135,0.7,2.7,74,0.00,,,0.00,WUHU216HW,2013-07-11 14:08:00,
2013-07-11 07:09:00,57.2,49.0,30.11,ESE,113,0.0,2.7,74,0.00,,,0.00,WUHU216HW,2013-07-11 14:09:00,
2013-07-11 07:11:00,57.2,49.0,30.11,ESE,113,0.0,2.7,74,0.00,,,0.00,WUHU216HW,2013-07-11 14:11:00,
2013-07-11 07:12:00,57.2,49.0,30.11,ESE,113,0.0,2.7,74,0.00,,,0.00,WUHU216HW,2013-07-11 14:12:00,
2013-07-11 07:14:00,57.2,49.0,30.11,ENE,68,0.0,2.7,74,0.00,,,0.00,WUHU216HW,2013-07-11 14:14:00,
2013-07-11 07:16:00,57.2,49.0,30.11,SE,135,0.0,1.1,74,0.00,,,0.00,WUHU216HW,2013-07-11 14:16:00,
2013-07-11 07:17:00,57.2,49.0,30.11,SE,135,0.4,1.1,74,0.00,,,0.00,WUHU216HW,2013-07-11 14:17:00,
2013-07-11 07:19:00,57.4,49.1,30.11,SE,135,0.0,0.7,74,0.00,,,0.00,WUHU216HW,2013-07-11 14:19:00,
2013-07-11 07:20:00,57.2,49.0,30.11,SE,135,0.0,0.7,74,0.00,,,0.00,WUHU216HW,2013-07-11 14:20:00,
2013-07-11 07:21:00,57.4,49.1,30.11,SSE,158,0.0,0.7,74,0.00,,,0.00,WUHU216HW,2013-07-11 14:21:00,
2013-07-11 07:22:00,57.4,49.1,30.11,SSE,158,0.0,0.7,74,0.00,,,0.00,WUHU216HW,2013-07-11 14:22:00,
2013-07-11 07:24:00,57.4,49.1,30.11,SE,135,0.0,1.1,74,0.00,,,0.00,WUHU216HW,2013-07-11 14:24:00,
2013-07-11 07:25:00,57.6,49.3,30.11,SSE,158,0.0,1.1,74,0.00,,,0.00,WUHU216HW,2013-07-11 14:25:00,
2013-07-11 07:26:00,57.6,49.3,30.11,South,180,0.9,1.1,74,0.00,,,0.00,WUHU216HW,2013-07-11 14:26:00,
2013-07-11 07:27:00,57.6,49.3,30.11,East,90,0.9,1.1,74,0.00,,,0.00,WUHU216HW,2013-07-11 14:27:00,
2013-07-11 07:29:00,57.6,49.3,30.11,ENE,68,1.8,1.8,74,0.00,,,0.00,WUHU216HW,2013-07-11 14:29:00,
2013-07-11 07:30:00,57.6,49.3,30.11,ENE,68,1.8,1.8,74,0.00,,,0.00,WUHU216HW,2013-07-11 14:30:00,
2013-07-11 07:32:00,57.6,49.0,30.11,ESE,113,0.4,2.2,73,0.00,,,0.00,WUHU216HW,2013-07-11 14:32:00,
2013-07-11 07:33:00,57.6,49.0,30.11,ESE,113,0.0,2.2,73,0.00,,,0.00,WUHU216HW,2013-07-11 14:33:00,
2013-07-11 07:35:00,57.6,49.0,30.11,SE,135,0.0,2.2,73,0.00,,,0.00,WUHU216HW,2013-07-11 14:35:00,
2013-07-11 07:37:00,57.6,49.0,30.11,SE,135,0.0,2.2,73,0.00,,,0.00,WUHU216HW,2013-07-11 14:37:00,
2013-07-11 07:38:00,57.6,49.0,30.11,SE,135,0.0,2.2,73,0.00,,,0.00,WUHU216HW,2013-07-11 14:38:00,
2013-07-11 07:40:00,57.6,49.3,30.11,North,0,1.6,2.2,74,0.00,,,0.00,WUHU216HW,2013-07-11 14:40:00,
2013-07-11 07:42:00,57.6,49.3,30.11,SSW,203,1.1,1.6,74,0.00,,,0.00,WUHU216HW,2013-07-11 14:42:00,
2013-07-11 07:43:00,57.6,49.3,30.12,SSE,158,2.2,2.2,74,0.00,,,0.00,WUHU216HW,2013-07-11 14:43:00,
2013-07-11 07:45:00,57.6,50.0,30.11,SE,135,2.5,4.7,76,0.00,,,0.00,WUHU216HW,2013-07-11 14:45:00,
2013-07-11 07:46:00,57.6,50.0,30.11,SE,135,2.5,4.7,76,0.00,,,0.00,WUHU216HW,2013-07-11 14:46:00,
2013-07-11 07:47:00,57.4,49.9,30.11,ESE,113,4.7,4.7,76,0.00,,,0.00,WUHU216HW,2013-07-11 14:47:00,
2013-07-11 07:48:00,57.4,49.9,30.12,South,180,1.8,4.7,76,0.00,,,0.00,WUHU216HW,2013-07-11 14:48:00,
2013-07-11 07:50:00,57.2,50.4,30.12,SSE,158,0.0,4.7,78,0.00,,,0.00,WUHU216HW,2013-07-11 14:50:00,
2013-07-11 07:51:00,57.2,50.4,30.12,SSE,158,0.0,4.7,78,0.00,,,0.00,WUHU216HW,2013-07-11 14:51:00,
2013-07-11 07:52:00,57.1,50.2,30.11,ENE,68,3.1,6.5,78,0.00,,,0.00,WUHU216HW,2013-07-11 14:52:00,
2013-07-11 07:53:00,57.1,50.2,30.12,North,0,1.8,6.5,78,0.00,,,0.00,WUHU216HW,2013-07-11 14:53:00,
2013-07-11 07:55:00,56.9,50.0,30.11,NE,45,1.3,6.5,78,0.00,,,0.00,WUHU216HW,2013-07-11 14:55:00,
2013-07-11 07:56:00,56.9,50.0,30.12,ESE,113,1.8,6.5,78,0.00,,,0.00,WUHU216HW,2013-07-11 14:56:00,
2013-07-11 07:57:00,56.7,50.2,30.11,East,90,0.9,6.5,79,0.00,,,0.00,WUHU216HW,2013-07-11 14:57:00,
2013-07-11 07:58:00,56.7,50.2,30.11,East,90,1.1,6.5,79,0.00,,,0.00,WUHU216HW,2013-07-11 14:58:00,
2013-07-11 08:01:00,56.5,50.0,30.11,East,90,0.0,6.5,79,0.00,,,0.00,WUHU216HW,2013-07-11 15:01:00,
2013-07-11 08:02:00,56.3,50.2,30.12,ENE,68,0.0,4.7,80,0.00,,,0.00,WUHU216HW,2013-07-11 15:02:00,
2013-07-11 08:03:00,56.3,50.2,30.12,East,90,0.9,2.2,80,0.00,,,0.00,WUHU216HW,2013-07-11 15:03:00,
2013-07-11 08:05:00,56.2,50.0,30.12,ESE,113,0.9,1.8,80,0.00,,,0.00,WUHU216HW,2013-07-11 15:05:00,
2013-07-11 08:07:00,56.0,49.9,30.12,SE,135,0.7,1.6,80,0.00,,,0.00,WUHU216HW,2013-07-11 15:07:00,
2013-07-11 08:08:00,56.2,50.0,30.12,SE,135,1.1,1.6,80,0.00,,,0.00,WUHU216HW,2013-07-11 15:08:00,
2013-07-11 08:11:00,56.0,49.9,30.12,East,90,0.2,1.6,80,0.00,,,0.00,WUHU216HW,2013-07-11 15:11:00,
2013-07-11 08:12:00,56.0,50.2,30.12,ESE,113,0.4,1.6,81,0.00,,,0.00,WUHU216HW,2013-07-11 15:12:00,
2013-07-11 08:13:00,56.0,50.2,30.12,SE,135,0.0,1.6,81,0.00,,,0.00,WUHU216HW,2013-07-11 15:13:00,
2013-07-11 08:16:00,55.8,50.1,30.12,East,90,0.0,2.2,81,0.00,,,0.00,WUHU216HW,2013-07-11 15:16:00,
2013-07-11 08:17:00,55.8,50.1,30.12,NNE,23,0.0,2.2,81,0.00,,,0.00,WUHU216HW,2013-07-11 15:17:00,
2013-07-11 08:18:00,56.0,50.2,30.12,SE,135,0.4,2.2,81,0.00,,,0.00,WUHU216HW,2013-07-11 15:18:00,
2013-07-11 08:19:00,55.8,50.1,30.12,SE,135,0.0,2.2,81,0.00,,,0.00,WUHU216HW,2013-07-11 15:19:00,
2013-07-11 08:22:00,55.8,50.1,30.12,ENE,68,0.9,2.2,81,0.00,,,0.00,WUHU216HW,2013-07-11 15:22:00,
2013-07-11 08:23:00,55.8,50.1,30.12,NNE,23,0.0,2.2,81,0.00,,,0.00,WUHU216HW,2013-07-11 15:23:00,
2013-07-11 08:24:00,55.8,50.1,30.12,NNE,23,0.0,1.3,81,0.00,,,0.00,WUHU216HW,2013-07-11 15:24:00,
2013-07-11 08:27:00,56.0,50.2,30.12,ENE,68,0.2,0.9,81,0.00,,,0.00,WUHU216HW,2013-07-11 15:27:00,
2013-07-11 08:28:00,56.0,50.2,30.12,East,90,0.0,1.1,81,0.00,,,0.00,WUHU216HW,2013-07-11 15:28:00,
2013-07-11 08:29:00,56.0,50.2,30.11,East,90,0.0,1.1,81,0.00,,,0.00,WUHU216HW,2013-07-11 15:29:00,
2013-07-11 08:32:00,55.8,50.1,30.11,SE,135,0.0,1.1,81,0.00,,,0.00,WUHU216HW,2013-07-11 15:32:00,
2013-07-11 08:34:00,55.8,50.1,30.11,NNE,23,0.0,1.6,81,0.00,,,0.00,WUHU216HW,2013-07-11 15:34:00,
2013-07-11 08:37:00,55.8,50.3,30.11,ESE,113,0.2,1.6,82,0.00,,,0.00,WUHU216HW,2013-07-11 15:37:00,
2013-07-11 08:38:00,55.8,50.3,30.11,ENE,68,1.1,1.6,82,0.00,,,0.00,WUHU216HW,2013-07-11 15:38:00,
2013-07-11 08:39:00,55.8,50.3,30.11,NE,45,1.8,1.8,82,0.00,,,0.00,WUHU216HW,2013-07-11 15:39:00,
2013-07-11 08:42:00,55.8,50.3,30.11,ESE,113,0.9,1.8,82,0.00,,,0.00,WUHU216HW,2013-07-11 15:42:00,
2013-07-11 08:43:00,55.8,50.3,30.12,ENE,68,0.9,1.8,82,0.00,,,0.00,WUHU216HW,2013-07-11 15:43:00,
2013-07-11 08:44:00,55.8,50.3,30.12,ESE,113,0.7,1.8,82,0.00,,,0.00,WUHU216HW,2013-07-11 15:44:00,
2013-07-11 08:45:00,55.8,50.3,30.12,East,90,0.4,1.8,82,0.00,,,0.00,WUHU216HW,2013-07-11 15:45:00,
2013-07-11 08:47:00,55.8,50.3,30.12,ENE,68,0.9,1.8,82,0.00,,,0.00,WUHU216HW,2013-07-11 15:47:00,
2013-07-11 08:49:00,55.8,50.3,30.11,ENE,68,1.3,1.6,82,0.00,,,0.00,WUHU216HW,2013-07-11 15:49:00,
2013-07-11 08:50:00,55.8,50.3,30.11,North,0,0.4,1.6,82,0.00,,,0.00,WUHU216HW,2013-07-11 15:50:00,
2013-07-11 08:52:00,55.8,50.3,30.11,NNE,23,0.4,1.6,82,0.00,,,0.00,WUHU216HW,2013-07-11 15:52:00,
2013-07-11 08:54:00,56.0,50.5,30.11,NE,45,0.4,1.3,82,0.00,,,0.00,WUHU216HW,2013-07-11 15:54:00,
2013-07-11 08:55:00,56.0,50.5,30.11,East,90,0.9,1.3,82,0.00,,,0.00,WUHU216HW,2013-07-11 15:55:00,
2013-07-11 08:58:00,56.2,50.7,30.11,North,0,1.8,1.8,82,0.00,,,0.00,WUHU216HW,2013-07-11 15:58:00,
2013-07-11 08:59:00,56.2,50.7,30.11,ENE,68,0.9,1.8,82,0.00,,,0.00,WUHU216HW,2013-07-11 15:59:00,
2013-07-11 09:00:00,56.2,50.7,30.11,SE,135,1.1,1.8,82,0.00,,,0.00,WUHU216HW,2013-07-11 16:00:00,
2013-07-11 09:04:00,56.3,50.9,30.11,NNE,23,0.4,1.8,82,0.00,,,0.00,WUHU216HW,2013-07-11 16:04:00,
2013-07-11 09:05:00,56.3,50.9,30.11,ESE,113,1.1,1.8,82,0.00,,,0.00,WUHU216HW,2013-07-11 16:05:00,
2013-07-11 09:09:00,56.5,51.0,30.12,NE,45,2.7,2.7,82,0.00,,,0.00,WUHU216HW,2013-07-11 16:09:00,
2013-07-11 09:10:00,56.5,51.0,30.12,SE,135,1.3,2.7,82,0.00,,,0.00,WUHU216HW,2013-07-11 16:10:00,
2013-07-11 09:14:00,56.7,51.2,30.12,SE,135,0.7,2.7,82,0.00,,,0.00,WUHU216HW,2013-07-11 16:14:00,
2013-07-11 09:15:00,56.7,51.2,30.12,ESE,113,1.1,2.7,82,0.00,,,0.00,WUHU216HW,2013-07-11 16:15:00,
2013-07-11 09:19:00,56.9,51.4,30.12,ESE,113,0.4,2.7,82,0.00,,,0.00,WUHU216HW,2013-07-11 16:19:00,
2013-07-11 09:20:00,56.9,51.1,30.12,ESE,113,1.6,1.8,81,0.00,,,0.00,WUHU216HW,2013-07-11 16:20:00,
2013-07-11 09:24:00,57.2,51.5,30.11,East,90,0.0,2.0,81,0.00,,,0.00,WUHU216HW,2013-07-11 16:24:00,
2013-07-11 09:25:00,57.2,51.5,30.11,SE,135,0.0,2.0,81,0.00,,,0.00,WUHU216HW,2013-07-11 16:25:00,
2013-07-11 09:29:00,57.2,51.1,30.11,ENE,68,0.7,2.0,80,0.00,,,0.00,WUHU216HW,2013-07-11 16:29:00,
2013-07-11 09:30:00,57.4,51.3,30.11,ENE,68,0.4,2.0,80,0.00,,,0.00,WUHU216HW,2013-07-11 16:30:00,
2013-07-11 09:34:00,57.8,51.7,30.12,South,180,0.0,1.1,80,0.01,,,0.00,WUHU216HW,2013-07-11 16:34:00,
2013-07-11 09:35:00,57.8,51.7,30.12,South,180,0.0,1.1,80,0.01,,,0.00,WUHU216HW,2013-07-11 16:35:00,
2013-07-11 09:36:00,58.0,51.8,30.12,NE,45,0.2,1.1,80,0.01,,,0.00,WUHU216HW,2013-07-11 16:36:00,
2013-07-11 09:40:00,58.1,51.7,30.12,East,90,1.3,1.8,79,0.01,,,0.00,WUHU216HW,2013-07-11 16:40:00,
2013-07-11 09:41:00,58.1,51.7,30.12,NNE,23,1.8,2.2,79,0.01,,,0.00,WUHU216HW,2013-07-11 16:41:00,
2013-07-11 09:45:00,58.3,51.5,30.12,East,90,0.2,2.2,78,0.01,,,0.00,WUHU216HW,2013-07-11 16:45:00,
2013-07-11 09:46:00,58.5,51.7,30.12,NNE,23,0.9,2.2,78,0.01,,,0.00,WUHU216HW,2013-07-11 16:46:00,
2013-07-11 09:50:00,58.5,51.7,30.12,ENE,68,0.4,2.2,78,0.01,,,0.00,WUHU216HW,2013-07-11 16:50:00,
2013-07-11 09:51:00,58.5,51.7,30.12,East,90,0.4,1.6,78,0.01,,,0.00,WUHU216HW,2013-07-11 16:51:00,
2013-07-11 09:55:00,58.5,51.3,30.12,ESE,113,0.2,1.6,77,0.01,,,0.00,WUHU216HW,2013-07-11 16:55:00,
2013-07-11 09:56:00,58.5,50.9,30.12,NE,45,0.7,1.6,76,0.01,,,0.00,WUHU216HW,2013-07-11 16:56:00,
2013-07-11 10:00:00,58.5,50.9,30.12,SSE,158,0.4,2.2,76,0.01,,,0.00,WUHU216HW,2013-07-11 17:00:00,
2013-07-11 10:01:00,58.7,51.1,30.12,NNE,23,1.6,2.2,76,0.01,,,0.00,WUHU216HW,2013-07-11 17:01:00,
2013-07-11 10:05:00,58.7,51.5,30.12,East,90,1.1,2.2,77,0.01,,,0.00,WUHU216HW,2013-07-11 17:05:00,
2013-07-11 10:06:00,58.7,51.5,30.12,East,90,1.1,2.2,77,0.01,,,0.00,WUHU216HW,2013-07-11 17:06:00,
2013-07-11 10:10:00,58.9,51.3,30.12,SSE,158,0.4,3.4,76,0.01,,,0.00,WUHU216HW,2013-07-11 17:10:00,
2013-07-11 10:11:00,59.0,51.5,30.12,SSE,158,0.4,3.4,76,0.01,,,0.00,WUHU216HW,2013-07-11 17:11:00,
2013-07-11 10:15:00,59.4,51.8,30.12,SSW,203,1.1,3.4,76,0.01,,,0.00,WUHU216HW,2013-07-11 17:15:00,
2013-07-11 10:16:00,59.4,51.8,30.12,SE,135,2.5,3.4,76,0.01,,,0.00,WUHU216HW,2013-07-11 17:16:00,
2013-07-11 10:17:00,59.4,51.8,30.12,South,180,2.0,3.4,76,0.01,,,0.00,WUHU216HW,2013-07-11 17:17:00,
2013-07-11 10:21:00,59.8,51.8,30.12,SSE,158,1.6,2.5,75,0.01,,,0.00,WUHU216HW,2013-07-11 17:21:00,
2013-07-11 10:22:00,59.6,51.7,30.12,SSE,158,1.3,2.5,75,0.01,,,0.00,WUHU216HW,2013-07-11 17:22:00,
2013-07-11 10:26:00,59.8,51.5,30.12,South,180,0.0,2.5,74,0.01,,,0.00,WUHU216HW,2013-07-11 17:26:00,
2013-07-11 10:27:00,59.9,51.7,30.12,South,180,0.0,2.0,74,0.01,,,0.00,WUHU216HW,2013-07-11 17:27:00,
2013-07-11 10:31:00,59.9,51.3,30.12,SSW,203,2.7,4.3,73,0.01,,,0.00,WUHU216HW,2013-07-11 17:31:00,
2013-07-11 10:32:00,59.9,50.9,30.12,SSW,203,1.6,4.3,72,0.00,,,0.00,WUHU216HW,2013-07-11 17:32:00,
2013-07-11 10:36:00,59.8,51.1,30.12,East,90,0.0,4.3,73,0.00,,,0.00,WUHU216HW,2013-07-11 17:36:00,
2013-07-11 10:37:00,59.8,51.1,30.12,NE,45,0.0,4.3,73,0.00,,,0.00,WUHU216HW,2013-07-11 17:37:00,
2013-07-11 10:41:00,60.3,51.7,30.12,SSE,158,0.2,4.3,73,0.00,,,0.00,WUHU216HW,2013-07-11 17:41:00,
2013-07-11 10:42:00,60.5,51.8,30.12,SSE,158,1.3,4.3,73,0.00,,,0.00,WUHU216HW,2013-07-11 17:42:00,
2013-07-11 10:46:00,60.8,51.8,30.12,South,180,1.6,2.5,72,0.00,,,0.00,WUHU216HW,2013-07-11 17:46:00,
2013-07-11 10:47:00,60.8,51.8,30.12,SSE,158,1.6,2.5,72,0.00,,,0.00,WUHU216HW,2013-07-11 17:47:00,
2013-07-11 10:52:00,61.4,51.9,30.12,ENE,68,0.0,2.5,71,0.00,,,0.00,WUHU216HW,2013-07-11 17:52:00,
2013-07-11 10:53:00,61.4,51.9,30.12,ENE,68,0.0,2.5,71,0.00,,,0.00,WUHU216HW,2013-07-11 17:53:00,
2013-07-11 10:57:00,61.9,52.1,30.12,SSE,158,0.0,1.6,70,0.00,,,0.00,WUHU216HW,2013-07-11 17:57:00,
2013-07-11 10:58:00,61.9,52.1,30.12,East,90,0.0,1.3,70,0.00,,,0.00,WUHU216HW,2013-07-11 17:58:00,
2013-07-11 11:02:00,62.5,52.6,30.12,South,180,1.3,2.2,70,0.00,,,0.00,WUHU216HW,2013-07-11 18:02:00,
2013-07-11 11:03:00,62.6,52.7,30.12,South,180,1.6,2.2,70,0.00,,,0.00,WUHU216HW,2013-07-11 18:03:00,
2013-07-11 11:07:00,63.0,51.8,30.12,SSW,203,1.6,2.2,67,0.00,,,0.00,WUHU216HW,2013-07-11 18:07:00,
2013-07-11 11:08:00,63.0,51.8,30.12,SSW,203,1.6,2.2,67,0.00,,,0.00,WUHU216HW,2013-07-11 18:08:00,
2013-07-11 11:09:00,63.2,52.5,30.12,SSW,203,0.7,2.2,68,0.00,,,0.00,WUHU216HW,2013-07-11 18:09:00,
2013-07-11 11:13:00,63.5,52.8,30.12,SSW,203,0.0,2.7,68,0.00,,,0.00,WUHU216HW,2013-07-11 18:13:00,
2013-07-11 11:14:00,63.7,53.0,30.12,South,180,0.0,2.7,68,0.00,,,0.00,WUHU216HW,2013-07-11 18:14:00,
2013-07-11 11:18:00,64.4,53.3,30.12,SSE,158,1.8,2.7,67,0.00,,,0.00,WUHU216HW,2013-07-11 18:18:00,
2013-07-11 11:19:00,64.6,53.4,30.12,South,180,0.9,2.7,67,0.00,,,0.00,WUHU216HW,2013-07-11 18:19:00,
2013-07-11 11:23:00,65.3,53.6,30.12,SSW,203,1.1,2.5,66,0.00,,,0.00,WUHU216HW,2013-07-11 18:23:00,
2013-07-11 11:24:00,65.3,53.6,30.12,SSW,203,1.1,2.5,66,0.00,,,0.00,WUHU216HW,2013-07-11 18:24:00,
2013-07-11 11:29:00,65.9,53.7,30.12,South,180,1.6,2.0,65,0.00,,,0.00,WUHU216HW,2013-07-11 18:29:00,
2013-07-11 11:34:00,66.2,53.3,30.12,SSW,203,2.0,4.7,63,0.00,,,0.00,WUHU216HW,2013-07-11 18:34:00,
2013-07-11 11:35:00,66.2,52.8,30.13,South,180,2.5,4.7,62,0.00,,,0.00,WUHU216HW,2013-07-11 18:35:00,
2013-07-11 11:39:00,66.6,53.7,30.12,South,180,2.5,4.7,63,0.00,,,0.00,WUHU216HW,2013-07-11 18:39:00,
2013-07-11 11:40:00,66.8,53.7,30.12,SSE,158,1.8,4.7,63,0.00,,,0.00,WUHU216HW,2013-07-11 18:40:00,
2013-07-11 11:44:00,67.7,52.8,30.12,SSW,203,1.3,2.5,59,0.00,,,0.00,WUHU216HW,2013-07-11 18:44:00,
2013-07-11 11:45:00,67.5,52.2,30.12,SSE,158,1.8,2.5,58,0.00,,,0.00,WUHU216HW,2013-07-11 18:45:00,
2013-07-11 11:49:00,67.3,53.5,30.12,SSW,203,0.0,2.5,61,0.00,,,0.00,WUHU216HW,2013-07-11 18:49:00,
2013-07-11 11:50:00,67.7,53.7,30.12,SSW,203,0.0,2.0,61,0.00,,,0.00,WUHU216HW,2013-07-11 18:50:00,
2013-07-11 11:54:00,68.6,53.7,30.12,South,180,2.7,3.6,59,0.00,,,0.00,WUHU216HW,2013-07-11 18:54:00,
2013-07-11 11:55:00,68.8,53.9,30.12,SSW,203,1.1,3.6,59,0.00,,,0.00,WUHU216HW,2013-07-11 18:55:00,
2013-07-11 11:56:00,68.8,53.9,30.12,SSW,203,0.7,3.6,59,0.00,,,0.00,WUHU216HW,2013-07-11 18:56:00,
2013-07-11 11:59:00,69.5,53.6,30.12,South,180,2.5,3.6,57,0.00,,,0.00,WUHU216HW,2013-07-11 18:59:00,
2013-07-11 12:00:00,69.8,53.9,30.12,SSE,158,2.9,3.6,57,0.00,,,0.00,WUHU216HW,2013-07-11 19:00:00,
2013-07-11 12:01:00,70.2,53.7,30.12,South,180,3.8,3.8,56,0.00,,,0.00,WUHU216HW,2013-07-11 19:01:00,
2013-07-11 12:04:00,71.6,55.1,30.12,South,180,2.5,3.8,56,0.00,,,0.00,WUHU216HW,2013-07-11 19:04:00,
2013-07-11 12:06:00,72.2,55.5,30.12,SW,225,1.3,3.8,56,0.00,,,0.00,WUHU216HW,2013-07-11 19:06:00,
2013-07-11 12:09:00,74.0,55.2,30.12,South,180,3.8,3.8,52,0.00,,,0.00,WUHU216HW,2013-07-11 19:09:00,
2013-07-11 12:11:00,74.3,55.1,30.12,SSW,203,2.7,3.8,51,0.00,,,0.00,WUHU216HW,2013-07-11 19:11:00,
2013-07-11 12:15:00,75.4,56.1,30.12,South,180,2.7,3.8,51,0.00,,,0.00,WUHU216HW,2013-07-11 19:15:00,
2013-07-11 12:16:00,75.8,55.9,30.12,South,180,2.9,3.8,50,0.00,,,0.00,WUHU216HW,2013-07-11 19:16:00,
2013-07-11 12:17:00,76.0,55.4,30.12,SSE,158,4.3,4.3,49,0.00,,,0.00,WUHU216HW,2013-07-11 19:17:00,
2013-07-11 12:20:00,76.9,56.3,30.12,SSE,158,2.9,4.5,49,0.00,,,0.00,WUHU216HW,2013-07-11 19:20:00,
2013-07-11 12:21:00,76.9,55.7,30.12,South,180,3.8,4.5,48,0.00,,,0.00,WUHU216HW,2013-07-11 19:21:00,
2013-07-11 12:22:00,77.0,55.3,30.12,South,180,5.4,5.4,47,0.00,,,0.00,WUHU216HW,2013-07-11 19:22:00,
2013-07-11 12:25:00,76.9,55.7,30.12,South,180,2.7,5.4,48,0.00,,,0.00,WUHU216HW,2013-07-11 19:25:00,
2013-07-11 12:26:00,76.7,55.5,30.12,South,180,3.4,5.4,48,0.00,,,0.00,WUHU216HW,2013-07-11 19:26:00,
2013-07-11 12:27:00,76.9,55.7,30.12,SSW,203,2.5,5.4,48,0.00,,,0.00,WUHU216HW,2013-07-11 19:27:00,
2013-07-11 12:28:00,76.9,55.7,30.12,SSE,158,1.3,5.4,48,0.00,,,0.00,WUHU216HW,2013-07-11 19:28:00,
2013-07-11 12:30:00,77.4,56.2,30.12,South,180,2.5,5.4,48,0.00,,,0.00,WUHU216HW,2013-07-11 19:30:00,
2013-07-11 12:31:00,77.9,56.1,30.12,South,180,4.0,5.4,47,0.00,,,0.00,WUHU216HW,2013-07-11 19:31:00,
2013-07-11 12:32:00,78.1,54.4,30.12,South,180,4.0,5.4,44,0.00,,,0.00,WUHU216HW,2013-07-11 19:32:00,
2013-07-11 12:33:00,78.1,55.6,30.12,South,180,4.0,4.7,46,0.00,,,0.00,WUHU216HW,2013-07-11 19:33:00,
2013-07-11 12:35:00,78.7,56.1,30.12,SSW,203,1.8,4.0,46,0.00,,,0.00,WUHU216HW,2013-07-11 19:35:00,
2013-07-11 12:36:00,78.8,53.2,30.12,SW,225,2.5,4.0,41,0.00,,,0.00,WUHU216HW,2013-07-11 19:36:00,
2013-07-11 12:38:00,78.8,55.0,30.12,SSW,203,2.0,4.0,44,0.00,,,0.00,WUHU216HW,2013-07-11 19:38:00,
2013-07-11 12:40:00,79.0,55.8,30.12,SSW,203,1.1,4.0,45,0.00,,,0.00,WUHU216HW,2013-07-11 19:40:00,
2013-07-11 12:41:00,79.2,56.0,30.12,SSW,203,1.8,4.0,45,0.00,,,0.00,WUHU216HW,2013-07-11 19:41:00,
2013-07-11 12:43:00,79.6,56.3,30.12,SSE,158,1.1,4.0,45,0.00,,,0.00,WUHU216HW,2013-07-11 19:43:00,
2013-07-11 12:45:00,80.5,56.4,30.12,South,180,3.4,3.4,44,0.00,,,0.00,WUHU216HW,2013-07-11 19:45:00,
2013-07-11 12:47:00,80.8,56.8,30.12,SSW,203,2.2,3.4,44,0.00,,,0.00,WUHU216HW,2013-07-11 19:47:00,
2013-07-11 12:48:00,80.6,53.4,30.12,SW,225,1.1,3.4,39,0.00,,,0.00,WUHU216HW,2013-07-11 19:48:00,
2013-07-11 12:50:00,80.1,55.5,30.12,SW,225,1.1,3.4,43,0.00,,,0.00,WUHU216HW,2013-07-11 19:50:00,
2013-07-11 12:52:00,80.5,55.3,30.12,South,180,2.5,3.4,42,0.00,,,0.00,WUHU216HW,2013-07-11 19:52:00,
2013-07-11 12:53:00,80.6,55.5,30.12,SSW,203,1.8,3.4,42,0.00,,,0.00,WUHU216HW,2013-07-11 19:53:00,
2013-07-11 12:55:00,81.4,54.1,30.11,SW,225,1.6,2.7,39,0.00,,,0.00,WUHU216HW,2013-07-11 19:55:00,
2013-07-11 12:57:00,80.6,52.7,30.12,SSW,203,1.8,2.7,38,0.00,,,0.00,WUHU216HW,2013-07-11 19:57:00,
2013-07-11 12:58:00,80.3,53.8,30.11,SSE,158,1.1,2.7,40,0.00,,,0.00,WUHU216HW,2013-07-11 19:58:00,
2013-07-11 13:00:00,79.9,54.2,30.11,SSE,158,2.2,2.7,41,0.00,,,0.00,WUHU216HW,2013-07-11 20:00:00,
2013-07-11 13:03:00,80.5,54.0,30.12,South,180,4.0,5.1,40,0.00,,,0.00,WUHU216HW,2013-07-11 20:03:00,
2013-07-11 13:05:00,80.6,54.2,30.12,South,180,3.4,5.1,40,0.00,,,0.00,WUHU216HW,2013-07-11 20:05:00,
2013-07-11 13:08:00,79.7,52.6,30.12,South,180,2.9,5.1,39,0.00,,,0.00,WUHU216HW,2013-07-11 20:08:00,
2013-07-11 13:10:00,79.2,54.1,30.12,South,180,3.8,6.3,42,0.00,,,0.00,WUHU216HW,2013-07-11 20:10:00,
2013-07-11 13:13:00,79.0,54.5,30.12,South,180,3.6,6.3,43,0.00,,,0.00,WUHU216HW,2013-07-11 20:13:00,
2013-07-11 13:15:00,79.0,53.4,30.11,SSW,203,5.4,6.3,41,0.00,,,0.00,WUHU216HW,2013-07-11 20:15:00,
2013-07-11 13:18:00,79.4,54.3,30.12,South,180,4.5,6.3,42,0.00,,,0.00,WUHU216HW,2013-07-11 20:18:00,
2013-07-11 13:19:00,79.6,54.5,30.12,South,180,4.9,6.3,42,0.00,,,0.00,WUHU216HW,2013-07-11 20:19:00,
2013-07-11 13:20:00,79.7,54.6,30.11,SSE,158,2.7,5.8,42,0.00,,,0.00,WUHU216HW,2013-07-11 20:20:00,
2013-07-11 13:23:00,80.1,54.3,30.11,SSW,203,2.2,5.4,41,0.00,,,0.00,WUHU216HW,2013-07-11 20:23:00,
2013-07-11 13:24:00,80.3,53.8,30.11,South,180,5.4,5.4,40,0.00,,,0.00,WUHU216HW,2013-07-11 20:24:00,
2013-07-11 13:26:00,80.3,53.8,30.11,SSE,158,3.6,5.4,40,0.00,,,0.00,WUHU216HW,2013-07-11 20:26:00,
2013-07-11 13:29:00,80.3,53.8,30.11,South,180,3.8,5.4,40,0.00,,,0.00,WUHU216HW,2013-07-11 20:29:00,
2013-07-11 13:31:00,80.3,53.1,30.11,South,180,3.4,5.4,39,0.00,,,0.00,WUHU216HW,2013-07-11 20:31:00,
2013-07-11 13:34:00,80.8,55.0,30.11,South,180,4.0,5.4,41,0.00,,,0.00,WUHU216HW,2013-07-11 20:34:00,
2013-07-11 13:36:00,81.2,54.6,30.11,South,180,4.3,4.7,40,0.00,,,0.00,WUHU216HW,2013-07-11 20:36:00,
2013-07-11 13:39:00,81.4,54.1,30.11,South,180,2.7,4.7,39,0.00,,,0.00,WUHU216HW,2013-07-11 20:39:00,
2013-07-11 13:40:00,81.4,54.1,30.11,SSW,203,3.1,4.7,39,0.00,,,0.00,WUHU216HW,2013-07-11 20:40:00,
2013-07-11 13:42:00,81.7,53.6,30.11,South,180,4.0,4.7,38,0.00,,,0.00,WUHU216HW,2013-07-11 20:42:00,
2013-07-11 13:45:00,82.1,53.9,30.10,South,180,3.1,4.7,38,0.00,,,0.00,WUHU216HW,2013-07-11 20:45:00,
2013-07-11 13:47:00,82.8,53.7,30.11,SSW,203,3.4,4.0,37,0.00,,,0.00,WUHU216HW,2013-07-11 20:47:00,
2013-07-11 13:50:00,83.0,52.3,30.11,South,180,4.7,6.0,35,0.00,,,0.00,WUHU216HW,2013-07-11 20:50:00,
2013-07-11 13:53:00,82.1,50.8,30.11,SSW,203,4.0,6.0,34,0.00,,,0.00,WUHU216HW,2013-07-11 20:53:00,
2013-07-11 13:55:00,81.7,51.2,30.11,WSW,248,0.7,6.0,35,0.00,,,0.00,WUHU216HW,2013-07-11 20:55:00,
2013-07-11 13:58:00,81.0,50.6,30.11,SW,225,1.1,6.0,35,0.00,,,0.00,WUHU216HW,2013-07-11 20:58:00,
2013-07-11 14:00:00,80.5,51.0,30.10,SW,225,0.9,5.1,36,0.00,,,0.00,WUHU216HW,2013-07-11 21:00:00,
2013-07-11 14:01:00,80.5,51.7,30.10,West,270,0.4,4.7,37,0.00,,,0.00,WUHU216HW,2013-07-11 21:01:00,
2013-07-11 14:03:00,80.3,50.0,30.10,WSW,248,1.1,4.0,35,0.00,,,0.00,WUHU216HW,2013-07-11 21:03:00,
2013-07-11 14:05:00,79.4,51.5,30.10,WSW,248,0.7,2.5,38,0.00,,,0.00,WUHU216HW,2013-07-11 21:05:00,
2013-07-11 14:06:00,79.2,50.6,30.10,WSW,248,1.3,2.5,37,0.00,,,0.00,WUHU216HW,2013-07-11 21:06:00,
2013-07-11 14:08:00,79.0,51.9,30.10,West,270,1.8,2.5,39,0.00,,,0.00,WUHU216HW,2013-07-11 21:08:00,
2013-07-11 14:10:00,79.7,52.6,30.10,West,270,2.2,2.5,39,0.00,,,0.00,WUHU216HW,2013-07-11 21:10:00,
2013-07-11 14:11:00,79.9,53.6,30.10,West,270,2.2,2.5,40,0.00,,,0.00,WUHU216HW,2013-07-11 21:11:00,
2013-07-11 14:13:00,81.0,51.4,30.10,West,270,1.1,2.2,36,0.00,,,0.00,WUHU216HW,2013-07-11 21:13:00,
2013-07-11 14:16:00,81.4,53.3,30.10,NW,315,1.6,3.1,38,0.00,,,0.00,WUHU216HW,2013-07-11 21:16:00,
2013-07-11 14:18:00,81.9,53.7,30.10,WNW,293,1.6,3.1,38,0.00,,,0.00,WUHU216HW,2013-07-11 21:18:00,
2013-07-11 14:21:00,82.4,50.2,30.10,WSW,248,1.1,3.1,33,0.00,,,0.00,WUHU216HW,2013-07-11 21:21:00,
2013-07-11 14:23:00,81.5,52.7,30.10,NW,315,3.6,4.5,37,0.00,,,0.00,WUHU216HW,2013-07-11 21:23:00,
2013-07-11 14:26:00,79.9,51.2,30.10,NW,315,3.4,4.5,37,0.00,,,0.00,WUHU216HW,2013-07-11 21:26:00,
2013-07-11 14:28:00,77.9,51.8,30.10,NNW,338,3.1,4.5,40,0.00,,,0.00,WUHU216HW,2013-07-11 21:28:00,
2013-07-11 14:31:00,77.0,51.6,30.10,NW,315,1.8,4.5,41,0.00,,,0.00,WUHU216HW,2013-07-11 21:31:00,
2013-07-11 14:33:00,75.2,51.1,30.10,NW,315,2.7,4.7,43,0.00,,,0.00,WUHU216HW,2013-07-11 21:33:00,
2013-07-11 14:36:00,74.5,51.1,30.10,WNW,293,2.5,4.7,44,0.00,,,0.00,WUHU216HW,2013-07-11 21:36:00,
2013-07-11 14:38:00,74.2,51.4,30.10,NW,315,3.1,4.7,45,0.00,,,0.00,WUHU216HW,2013-07-11 21:38:00,
2013-07-11 14:41:00,73.8,51.6,30.10,NW,315,3.4,4.5,46,0.00,,,0.00,WUHU216HW,2013-07-11 21:41:00,
2013-07-11 14:42:00,73.8,51.0,30.10,NW,315,2.7,4.5,45,0.00,,,0.00,WUHU216HW,2013-07-11 21:42:00,
2013-07-11 14:43:00,73.6,51.5,30.10,WNW,293,3.1,4.5,46,0.00,,,0.00,WUHU216HW,2013-07-11 21:43:00,
2013-07-11 14:46:00,73.4,51.3,30.10,NW,315,2.5,4.5,46,0.00,,,0.00,WUHU216HW,2013-07-11 21:46:00,
2013-07-11 14:47:00,73.6,51.5,30.10,WNW,293,2.7,4.5,46,0.00,,,0.00,WUHU216HW,2013-07-11 21:47:00,
2013-07-11 14:49:00,73.4,51.8,30.10,West,270,1.6,4.3,47,0.00,,,0.00,WUHU216HW,2013-07-11 21:49:00,
2013-07-11 14:51:00,73.6,51.5,30.10,NW,315,1.6,4.3,46,0.00,,,0.00,WUHU216HW,2013-07-11 21:51:00,
2013-07-11 14:52:00,73.8,51.6,30.10,NW,315,1.8,4.3,46,0.00,,,0.00,WUHU216HW,2013-07-11 21:52:00,
2013-07-11 14:54:00,74.2,52.6,30.09,NW,315,2.9,4.3,47,0.00,,,0.00,WUHU216HW,2013-07-11 21:54:00,
2013-07-11 14:57:00,74.2,53.2,30.10,NW,315,3.4,4.3,48,0.00,,,0.00,WUHU216HW,2013-07-11 21:57:00,
2013-07-11 14:58:00,74.2,53.2,30.09,NW,315,4.0,4.3,48,0.00,,,0.00,WUHU216HW,2013-07-11 21:58:00,
2013-07-11 14:59:00,74.2,53.2,30.09,NNW,338,2.7,4.3,48,0.00,,,0.00,WUHU216HW,2013-07-11 21:59:00,
2013-07-11 15:02:00,74.5,52.3,30.09,NW,315,4.3,4.7,46,0.00,,,0.00,WUHU216HW,2013-07-11 22:02:00,
2013-07-11 15:03:00,74.7,52.5,30.09,NW,315,3.4,4.7,46,0.00,,,0.00,WUHU216HW,2013-07-11 22:03:00,
2013-07-11 15:05:00,75.2,52.4,30.09,NNW,338,1.3,4.7,45,0.00,,,0.00,WUHU216HW,2013-07-11 22:05:00,
2013-07-11 15:07:00,76.1,52.6,30.09,NW,315,3.4,4.7,44,0.00,,,0.00,WUHU216HW,2013-07-11 22:07:00,
2013-07-11 15:08:00,76.1,51.4,30.09,NW,315,2.5,4.7,42,0.00,,,0.00,WUHU216HW,2013-07-11 22:08:00,
2013-07-11 15:10:00,76.9,53.2,30.09,NW,315,2.7,4.7,44,0.00,,,0.00,WUHU216HW,2013-07-11 22:10:00,
2013-07-11 15:12:00,77.4,53.1,30.09,West,270,1.6,4.0,43,0.00,,,0.00,WUHU216HW,2013-07-11 22:12:00,
2013-07-11 15:13:00,77.8,53.5,30.09,WNW,293,1.6,3.8,43,0.00,,,0.00,WUHU216HW,2013-07-11 22:13:00,
2013-07-11 15:15:00,78.5,54.1,30.09,NW,315,1.8,3.8,43,0.00,,,0.00,WUHU216HW,2013-07-11 22:15:00,
2013-07-11 15:17:00,79.9,54.2,30.09,NNW,338,2.5,2.7,41,0.00,,,0.00,WUHU216HW,2013-07-11 22:17:00,
2013-07-11 15:18:00,79.9,54.2,30.09,NNW,338,2.5,2.7,41,0.00,,,0.00,WUHU216HW,2013-07-11 22:18:00,
2013-07-11 15:20:00,80.1,52.9,30.09,NNW,338,1.1,2.7,39,0.00,,,0.00,WUHU216HW,2013-07-11 22:20:00,
2013-07-11 15:22:00,79.6,52.5,30.09,NNW,338,3.4,3.4,39,0.00,,,0.00,WUHU216HW,2013-07-11 22:22:00,
2013-07-11 15:23:00,79.4,53.0,30.09,North,0,3.4,3.4,40,0.00,,,0.00,WUHU216HW,2013-07-11 22:23:00,
2013-07-11 15:25:00,78.5,51.5,30.09,NW,315,2.2,3.4,39,0.00,,,0.00,WUHU216HW,2013-07-11 22:25:00,
2013-07-11 15:28:00,76.7,50.6,30.09,NW,315,2.2,3.4,40,0.00,,,0.00,WUHU216HW,2013-07-11 22:28:00,
2013-07-11 15:30:00,76.0,51.2,30.09,NNW,338,1.8,3.4,42,0.00,,,0.00,WUHU216HW,2013-07-11 22:30:00,
2013-07-11 15:34:00,75.6,50.9,30.09,NNW,338,2.5,3.4,42,0.00,,,0.00,WUHU216HW,2013-07-11 22:34:00,
2013-07-11 15:35:00,75.4,50.7,30.09,WNW,293,1.8,2.5,42,0.00,,,0.00,WUHU216HW,2013-07-11 22:35:00,
2013-07-11 15:39:00,75.2,50.6,30.09,NW,315,2.0,2.7,42,0.00,,,0.00,WUHU216HW,2013-07-11 22:39:00,
2013-07-11 15:41:00,75.2,51.1,30.09,NW,315,1.8,2.7,43,0.00,,,0.00,WUHU216HW,2013-07-11 22:41:00,
2013-07-11 15:44:00,75.6,52.1,30.09,WNW,293,2.7,3.1,44,0.00,,,0.00,WUHU216HW,2013-07-11 22:44:00,
2013-07-11 15:45:00,75.8,52.3,30.09,WNW,293,2.7,3.1,44,0.00,,,0.00,WUHU216HW,2013-07-11 22:45:00,
2013-07-11 15:46:00,76.0,51.2,30.09,NW,315,3.4,3.4,42,0.00,,,0.00,WUHU216HW,2013-07-11 22:46:00,
2013-07-11 15:50:00,76.5,51.7,30.09,NW,315,3.4,3.6,42,0.00,,,0.00,WUHU216HW,2013-07-11 22:50:00,
2013-07-11 15:51:00,76.7,51.8,30.09,WNW,293,4.0,4.3,42,0.00,,,0.00,WUHU216HW,2013-07-11 22:51:00,
2013-07-11 15:55:00,76.5,52.9,30.09,NW,315,4.9,4.9,44,0.00,,,0.00,WUHU216HW,2013-07-11 22:55:00,
2013-07-11 15:56:00,76.3,53.4,30.09,NW,315,4.9,4.9,45,0.00,,,0.00,WUHU216HW,2013-07-11 22:56:00,
2013-07-11 15:57:00,76.0,52.4,30.08,NW,315,6.3,6.3,44,0.00,,,0.00,WUHU216HW,2013-07-11 22:57:00,
2013-07-11 16:00:00,75.6,52.1,30.09,NW,315,8.3,8.3,44,0.00,,,0.00,WUHU216HW,2013-07-11 23:00:00,
2013-07-11 16:01:00,75.4,52.6,30.09,NW,315,6.9,8.3,45,0.00,,,0.00,WUHU216HW,2013-07-11 23:01:00,
2013-07-11 16:02:00,75.1,52.2,30.09,NW,315,6.7,8.3,45,0.00,,,0.00,WUHU216HW,2013-07-11 23:02:00,
2013-07-11 16:05:00,74.3,52.8,30.09,NW,315,5.4,8.5,47,0.00,,,0.00,WUHU216HW,2013-07-11 23:05:00,
2013-07-11 16:06:00,74.2,52.6,30.09,NW,315,6.7,8.5,47,0.00,,,0.00,WUHU216HW,2013-07-11 23:06:00,
2013-07-11 16:07:00,74.0,53.0,30.09,NW,315,9.8,9.8,48,0.00,,,0.00,WUHU216HW,2013-07-11 23:07:00,
2013-07-11 16:10:00,74.3,53.4,30.09,NW,315,8.3,9.8,48,0.00,,,0.00,WUHU216HW,2013-07-11 23:10:00,
2013-07-11 16:11:00,74.3,52.8,30.08,NW,315,6.9,9.8,47,0.00,,,0.00,WUHU216HW,2013-07-11 23:11:00,
2013-07-11 16:13:00,74.3,52.8,30.09,NW,315,6.7,9.8,47,0.00,,,0.00,WUHU216HW,2013-07-11 23:13:00,
2013-07-11 16:15:00,74.0,52.4,30.09,NW,315,4.9,9.8,47,0.00,,,0.00,WUHU216HW,2013-07-11 23:15:00,
2013-07-11 16:16:00,74.2,52.6,30.09,NW,315,5.8,9.8,47,0.00,,,0.00,WUHU216HW,2013-07-11 23:16:00,
2013-07-11 16:17:00,74.2,53.7,30.09,NW,315,6.0,9.8,49,0.00,,,0.00,WUHU216HW,2013-07-11 23:17:00,
2013-07-11 16:18:00,74.5,54.1,30.09,NW,315,6.3,8.3,49,0.00,,,0.00,WUHU216HW,2013-07-11 23:18:00,
2013-07-11 16:20:00,74.3,52.8,30.09,NW,315,6.0,7.8,47,0.00,,,0.00,WUHU216HW,2013-07-11 23:20:00,
2013-07-11 16:21:00,74.3,52.8,30.09,NW,315,4.5,7.8,47,0.00,,,0.00,WUHU216HW,2013-07-11 23:21:00,
2013-07-11 16:22:00,74.3,53.9,30.09,NW,315,8.1,8.1,49,0.00,,,0.00,WUHU216HW,2013-07-11 23:22:00,
2013-07-11 16:23:00,74.3,53.4,30.09,NNW,338,5.1,8.1,48,0.00,,,0.00,WUHU216HW,2013-07-11 23:23:00,
2013-07-11 16:25:00,74.5,53.6,30.08,NW,315,6.3,8.3,48,0.00,,,0.00,WUHU216HW,2013-07-11 23:25:00,
2013-07-11 16:26:00,74.5,52.9,30.08,NW,315,6.3,8.3,47,0.00,,,0.00,WUHU216HW,2013-07-11 23:26:00,
2013-07-11 16:27:00,74.5,52.3,30.08,NW,315,3.4,8.3,46,0.00,,,0.00,WUHU216HW,2013-07-11 23:27:00,
2013-07-11 16:28:00,74.5,52.3,30.08,NW,315,5.4,8.3,46,0.00,,,0.00,WUHU216HW,2013-07-11 23:28:00,
2013-07-11 16:30:00,74.5,52.3,30.08,NW,315,7.4,8.3,46,0.00,,,0.00,WUHU216HW,2013-07-11 23:30:00,
2013-07-11 16:32:00,74.3,52.1,30.08,NW,315,4.9,8.3,46,0.00,,,0.00,WUHU216HW,2013-07-11 23:32:00,
2013-07-11 16:33:00,74.2,54.4,30.09,NW,315,7.6,8.3,50,0.00,,,0.00,WUHU216HW,2013-07-11 23:33:00,
2013-07-11 16:36:00,73.6,52.7,30.08,NW,315,6.9,7.8,48,0.00,,,0.00,WUHU216HW,2013-07-11 23:36:00,
2013-07-11 16:37:00,73.3,53.5,30.08,NW,315,8.5,8.5,50,0.00,,,0.00,WUHU216HW,2013-07-11 23:37:00,
2013-07-11 16:38:00,73.4,53.6,30.08,West,270,8.9,8.9,50,0.00,,,0.00,WUHU216HW,2013-07-11 23:38:00,
2013-07-11 16:41:00,73.1,53.8,30.08,NW,315,7.2,8.9,51,0.00,,,0.00,WUHU216HW,2013-07-11 23:41:00,
2013-07-11 16:42:00,73.1,54.4,30.08,WNW,293,6.0,8.9,52,0.00,,,0.00,WUHU216HW,2013-07-11 23:42:00,
2013-07-11 16:43:00,73.1,54.4,30.08,WNW,293,5.4,8.9,52,0.00,,,0.00,WUHU216HW,2013-07-11 23:43:00,
2013-07-11 16:46:00,72.9,53.6,30.07,WNW,293,5.6,8.9,51,0.00,,,0.00,WUHU216HW,2013-07-11 23:46:00,
2013-07-11 16:48:00,72.7,53.5,30.08,WNW,293,4.3,8.9,51,0.00,,,0.00,WUHU216HW,2013-07-11 23:48:00,
2013-07-11 16:49:00,72.9,53.6,30.08,WNW,293,4.7,7.4,51,0.00,,,0.00,WUHU216HW,2013-07-11 23:49:00,
2013-07-11 16:51:00,73.1,54.4,30.08,WNW,293,4.7,7.4,52,0.00,,,0.00,WUHU216HW,2013-07-11 23:51:00,
2013-07-11 16:53:00,73.3,55.0,30.07,NW,315,8.3,8.3,53,0.00,,,0.00,WUHU216HW,2013-07-11 23:53:00,
2013-07-11 16:54:00,73.1,55.4,30.07,NW,315,7.6,8.5,54,0.00,,,0.00,WUHU216HW,2013-07-11 23:54:00,
2013-07-11 16:56:00,72.5,53.8,30.07,NW,315,5.8,8.5,52,0.00,,,0.00,WUHU216HW,2013-07-11 23:56:00,
2013-07-11 16:58:00,72.5,53.8,30.07,NW,315,6.0,8.5,52,0.00,,,0.00,WUHU216HW,2013-07-11 23:58:00,
2013-07-11 16:59:00,72.4,55.2,30.07,NNW,338,7.6,8.5,55,0.00,,,0.00,WUHU216HW,2013-07-11 23:59:00,
2013-07-11 17:01:00,71.6,54.5,30.07,NW,315,7.4,9.2,55,0.00,,,0.00,WUHU216HW,2013-07-12 00:01:00,
2013-07-11 17:03:00,71.3,52.8,30.07,WNW,293,6.7,9.2,52,0.00,,,0.00,WUHU216HW,2013-07-12 00:03:00,
2013-07-11 17:04:00,71.3,53.7,30.07,NW,315,6.3,9.2,54,0.00,,,0.00,WUHU216HW,2013-07-12 00:04:00,
2013-07-11 17:07:00,70.2,53.7,30.07,NW,315,8.5,9.2,56,0.00,,,0.00,WUHU216HW,2013-07-12 00:07:00,
2013-07-11 17:08:00,69.7,53.3,30.07,NW,315,9.2,9.2,56,0.00,,,0.00,WUHU216HW,2013-07-12 00:08:00,
2013-07-11 17:09:00,69.3,53.9,30.07,NW,315,9.6,9.6,58,0.00,,,0.00,WUHU216HW,2013-07-12 00:09:00,
2013-07-11 17:12:00,68.8,53.9,30.07,WNW,293,6.9,9.6,59,0.00,,,0.00,WUHU216HW,2013-07-12 00:12:00,
2013-07-11 17:14:00,68.4,54.0,30.07,NW,315,6.5,9.6,60,0.00,,,0.00,WUHU216HW,2013-07-12 00:14:00,
2013-07-11 17:15:00,68.2,53.4,30.07,NW,315,10.3,10.3,59,0.00,,,0.00,WUHU216HW,2013-07-12 00:15:00,
2013-07-11 17:17:00,68.0,53.6,30.07,NW,315,9.2,10.3,60,0.00,,,0.00,WUHU216HW,2013-07-12 00:17:00,
2013-07-11 17:19:00,68.0,54.6,30.07,WNW,293,8.9,10.3,62,0.00,,,0.00,WUHU216HW,2013-07-12 00:19:00,
2013-07-11 17:20:00,67.9,54.4,30.07,NW,315,6.9,10.3,62,0.00,,,0.00,WUHU216HW,2013-07-12 00:20:00,
2013-07-11 17:22:00,67.9,53.5,30.07,NW,315,6.5,10.3,60,0.00,,,0.00,WUHU216HW,2013-07-12 00:22:00,
2013-07-11 17:24:00,67.9,53.9,30.07,NW,315,6.7,10.3,61,0.00,,,0.00,WUHU216HW,2013-07-12 00:24:00,
2013-07-11 17:25:00,67.7,54.2,30.07,NW,315,7.6,10.3,62,0.00,,,0.00,WUHU216HW,2013-07-12 00:25:00,
2013-07-11 17:28:00,67.9,53.9,30.07,NW,315,7.4,9.4,61,0.00,,,0.00,WUHU216HW,2013-07-12 00:28:00,
2013-07-11 17:29:00,67.7,53.7,30.07,NW,315,6.9,9.2,61,0.00,,,0.00,WUHU216HW,2013-07-12 00:29:00,
2013-07-11 17:30:00,67.7,54.2,30.07,NW,315,8.7,9.2,62,0.00,,,0.00,WUHU216HW,2013-07-12 00:30:00,
2013-07-11 17:31:00,67.9,54.8,30.07,WNW,293,9.6,9.6,63,0.00,,,0.00,WUHU216HW,2013-07-12 00:31:00,
2013-07-11 17:33:00,67.7,54.2,30.06,NW,315,6.9,9.6,62,0.00,,,0.00,WUHU216HW,2013-07-12 00:33:00,
2013-07-11 17:34:00,67.7,53.7,30.06,NW,315,8.3,9.6,61,0.00,,,0.00,WUHU216HW,2013-07-12 00:34:00,
2013-07-11 17:35:00,67.7,54.2,30.06,NW,315,8.5,10.5,62,0.00,,,0.00,WUHU216HW,2013-07-12 00:35:00,
2013-07-11 17:36:00,67.7,55.0,30.06,NNW,338,6.5,10.5,64,0.00,,,0.00,WUHU216HW,2013-07-12 00:36:00,
2013-07-11 17:38:00,67.5,54.0,30.06,NNW,338,5.4,10.5,62,0.00,,,0.00,WUHU216HW,2013-07-12 00:38:00,
2013-07-11 17:39:00,67.7,53.7,30.06,NNW,338,6.0,10.5,61,0.00,,,0.00,WUHU216HW,2013-07-12 00:39:00,
2013-07-11 17:40:00,67.9,54.4,30.06,NW,315,7.4,10.5,62,0.00,,,0.00,WUHU216HW,2013-07-12 00:40:00,
2013-07-11 17:41:00,67.9,53.9,30.06,NW,315,6.3,10.5,61,0.00,,,0.00,WUHU216HW,2013-07-12 00:41:00,
2013-07-11 17:43:00,68.0,54.1,30.06,NNW,338,9.6,10.5,61,0.00,,,0.00,WUHU216HW,2013-07-12 00:43:00,
2013-07-11 17:45:00,68.0,54.6,30.06,NW,315,7.6,9.6,62,0.00,,,0.00,WUHU216HW,2013-07-12 00:45:00,
2013-07-11 17:47:00,68.0,54.6,30.06,NW,315,8.7,9.6,62,0.00,,,0.00,WUHU216HW,2013-07-12 00:47:00,
2013-07-11 17:48:00,67.7,53.7,30.06,NW,315,6.9,9.6,61,0.00,,,0.00,WUHU216HW,2013-07-12 00:48:00,
2013-07-11 17:50:00,67.7,54.2,30.06,NW,315,5.6,9.6,62,0.00,,,0.00,WUHU216HW,2013-07-12 00:50:00,
2013-07-11 17:51:00,67.7,53.7,30.06,NW,315,4.0,9.6,61,0.00,,,0.00,WUHU216HW,2013-07-12 00:51:00,
2013-07-11 17:52:00,67.9,52.5,30.06,NW,315,7.6,9.6,58,0.00,,,0.00,WUHU216HW,2013-07-12 00:52:00,
2013-07-11 17:53:00,67.9,53.0,30.06,NW,315,7.2,9.6,59,0.00,,,0.00,WUHU216HW,2013-07-12 00:53:00,
2013-07-11 17:55:00,67.7,52.4,30.06,NW,315,8.3,10.5,58,0.00,,,0.00,WUHU216HW,2013-07-12 00:55:00,
2013-07-11 17:56:00,67.7,53.7,30.06,NW,315,8.5,10.5,61,0.00,,,0.00,WUHU216HW,2013-07-12 00:56:00,
2013-07-11 17:57:00,67.5,54.5,30.06,NW,315,9.2,11.4,63,0.00,,,0.00,WUHU216HW,2013-07-12 00:57:00,
2013-07-11 17:59:00,67.3,53.0,30.06,NNW,338,8.5,11.4,60,0.00,,,0.00,WUHU216HW,2013-07-12 00:59:00,
2013-07-11 18:01:00,67.3,54.3,30.06,NW,315,7.6,11.4,63,0.00,,,0.00,WUHU216HW,2013-07-12 01:01:00,
2013-07-11 18:02:00,67.5,54.5,30.06,NW,315,9.2,11.4,63,0.00,,,0.00,WUHU216HW,2013-07-12 01:02:00,
2013-07-11 18:04:00,67.3,53.5,30.06,NW,315,6.3,11.4,61,0.00,,,0.00,WUHU216HW,2013-07-12 01:04:00,
2013-07-11 18:06:00,67.3,54.3,30.06,WNW,293,8.3,11.4,63,0.00,,,0.00,WUHU216HW,2013-07-12 01:06:00,
2013-07-11 18:08:00,67.3,53.0,30.06,NNW,338,6.7,9.6,60,0.00,,,0.00,WUHU216HW,2013-07-12 01:08:00,
2013-07-11 18:09:00,67.3,53.5,30.06,NW,315,9.2,9.6,61,0.00,,,0.00,WUHU216HW,2013-07-12 01:09:00,
2013-07-11 18:11:00,67.3,53.0,30.05,NW,315,6.9,9.6,60,0.00,,,0.00,WUHU216HW,2013-07-12 01:11:00,
2013-07-11 18:12:00,67.3,52.5,30.06,NW,315,7.8,9.6,59,0.00,,,0.00,WUHU216HW,2013-07-12 01:12:00,
2013-07-11 18:14:00,67.0,52.7,30.06,North,0,3.6,9.2,60,0.00,,,0.00,WUHU216HW,2013-07-12 01:14:00,
2013-07-11 18:16:00,67.1,53.6,30.06,NW,315,7.6,9.2,62,0.00,,,0.00,WUHU216HW,2013-07-12 01:16:00,
2013-07-11 18:17:00,67.0,53.1,30.06,NNW,338,5.4,9.2,61,0.00,,,0.00,WUHU216HW,2013-07-12 01:17:00,
2013-07-11 18:19:00,66.8,53.7,30.06,NW,315,6.9,10.5,63,0.00,,,0.00,WUHU216HW,2013-07-12 01:19:00,
2013-07-11 18:20:00,66.8,52.9,30.06,WNW,293,6.9,10.5,61,0.00,,,0.00,WUHU216HW,2013-07-12 01:20:00,
2013-07-11 18:22:00,66.6,52.7,30.06,NW,315,6.9,10.5,61,0.00,,,0.00,WUHU216HW,2013-07-12 01:22:00,
2013-07-11 18:24:00,66.6,53.7,30.06,NW,315,8.7,10.5,63,0.00,,,0.00,WUHU216HW,2013-07-12 01:24:00,
2013-07-11 18:25:00,66.6,53.7,30.06,NNW,338,8.7,10.5,63,0.00,,,0.00,WUHU216HW,2013-07-12 01:25:00,
2013-07-11 18:27:00,66.6,54.5,30.06,WNW,293,7.4,10.5,65,0.00,,,0.00,WUHU216HW,2013-07-12 01:27:00,
2013-07-11 18:30:00,66.6,54.0,30.06,NW,315,7.8,9.4,64,0.00,,,0.00,WUHU216HW,2013-07-12 01:30:00,
2013-07-11 18:31:00,66.6,53.2,30.06,NW,315,8.1,9.4,62,0.00,,,0.00,WUHU216HW,2013-07-12 01:31:00,
2013-07-11 18:32:00,66.4,53.0,30.06,NNW,338,6.5,9.4,62,0.00,,,0.00,WUHU216HW,2013-07-12 01:32:00,
2013-07-11 18:35:00,66.2,52.8,30.05,NNW,338,8.5,9.4,62,0.00,,,0.00,WUHU216HW,2013-07-12 01:35:00,
2013-07-11 18:36:00,66.4,53.5,30.05,NW,315,7.8,9.4,63,0.00,,,0.00,WUHU216HW,2013-07-12 01:36:00,
2013-07-11 18:37:00,66.2,52.5,30.05,NNW,338,6.5,9.4,61,0.00,,,0.00,WUHU216HW,2013-07-12 01:37:00,
2013-07-11 18:41:00,66.2,52.0,30.05,NW,315,7.8,9.4,60,0.00,,,0.00,WUHU216HW,2013-07-12 01:41:00,
2013-07-11 18:42:00,66.2,52.0,30.05,NW,315,6.7,9.4,60,0.00,,,0.00,WUHU216HW,2013-07-12 01:42:00,
2013-07-11 18:43:00,66.2,52.8,30.05,NW,315,8.5,9.4,62,0.00,,,0.00,WUHU216HW,2013-07-12 01:43:00,
2013-07-11 18:46:00,66.2,52.5,30.05,NW,315,4.5,8.9,61,0.00,,,0.00,WUHU216HW,2013-07-12 01:46:00,
2013-07-11 18:47:00,66.2,52.5,30.05,WNW,293,4.0,8.9,61,0.00,,,0.00,WUHU216HW,2013-07-12 01:47:00,
2013-07-11 18:48:00,66.2,52.5,30.05,WNW,293,4.0,8.9,61,0.00,,,0.00,WUHU216HW,2013-07-12 01:48:00,
2013-07-11 18:51:00,66.2,53.3,30.05,NW,315,7.4,8.5,63,0.00,,,0.00,WUHU216HW,2013-07-12 01:51:00,
2013-07-11 18:53:00,66.2,53.6,30.05,NW,315,5.4,8.5,64,0.00,,,0.00,WUHU216HW,2013-07-12 01:53:00,
2013-07-11 18:56:00,66.2,52.0,30.05,NW,315,3.6,7.8,60,0.00,,,0.00,WUHU216HW,2013-07-12 01:56:00,
2013-07-11 18:58:00,66.2,52.0,30.05,West,270,3.4,7.8,60,0.00,,,0.00,WUHU216HW,2013-07-12 01:58:00,
2013-07-11 19:01:00,66.2,51.0,30.05,NNW,338,2.2,7.2,58,0.00,,,0.00,WUHU216HW,2013-07-12 02:01:00,
2013-07-11 19:02:00,66.2,51.0,30.05,NNW,338,2.7,6.5,58,0.00,,,0.00,WUHU216HW,2013-07-12 02:02:00,
2013-07-11 19:03:00,66.4,50.8,30.05,North,0,4.0,6.5,57,0.00,,,0.00,WUHU216HW,2013-07-12 02:03:00,
2013-07-11 19:07:00,66.2,50.6,30.05,NW,315,3.1,4.7,57,0.00,,,0.00,WUHU216HW,2013-07-12 02:07:00,
2013-07-11 19:08:00,66.2,50.0,30.05,NW,315,1.6,4.7,56,0.00,,,0.00,WUHU216HW,2013-07-12 02:08:00,
2013-07-11 19:12:00,66.2,50.0,30.05,NNW,338,2.5,4.5,56,0.00,,,0.00,WUHU216HW,2013-07-12 02:12:00,
2013-07-11 19:13:00,66.2,49.6,30.05,NNW,338,3.6,4.5,55,0.00,,,0.00,WUHU216HW,2013-07-12 02:13:00,
2013-07-11 19:17:00,66.2,50.0,30.05,NNE,23,1.1,4.3,56,0.00,,,0.00,WUHU216HW,2013-07-12 02:17:00,
2013-07-11 19:19:00,66.2,50.0,30.05,NNW,338,4.0,4.3,56,0.00,,,0.00,WUHU216HW,2013-07-12 02:19:00,
2013-07-11 19:22:00,66.2,50.6,30.05,NNW,338,4.0,5.6,57,0.00,,,0.00,WUHU216HW,2013-07-12 02:22:00,
2013-07-11 19:23:00,66.1,50.4,30.05,WNW,293,4.0,6.3,57,0.00,,,0.00,WUHU216HW,2013-07-12 02:23:00,
2013-07-11 19:24:00,66.1,50.9,30.05,NW,315,3.4,6.3,58,0.00,,,0.00,WUHU216HW,2013-07-12 02:24:00,
2013-07-11 19:27:00,66.1,50.4,30.05,North,0,3.4,6.3,57,0.00,,,0.00,WUHU216HW,2013-07-12 02:27:00,
2013-07-11 19:29:00,66.1,49.9,30.05,North,0,3.1,6.3,56,0.00,,,0.00,WUHU216HW,2013-07-12 02:29:00,
2013-07-11 19:30:00,66.1,49.9,30.05,North,0,3.1,6.3,56,0.00,,,0.00,WUHU216HW,2013-07-12 02:30:00,
2013-07-11 19:32:00,65.9,50.2,30.04,North,0,3.1,6.3,57,0.00,,,0.00,WUHU216HW,2013-07-12 02:32:00,
2013-07-11 19:34:00,65.9,50.2,30.05,NNW,338,2.2,5.6,57,0.00,,,0.00,WUHU216HW,2013-07-12 02:34:00,
2013-07-11 19:35:00,65.9,50.2,30.05,NW,315,2.9,5.1,57,0.00,,,0.00,WUHU216HW,2013-07-12 02:35:00,
2013-07-11 19:37:00,65.9,50.7,30.04,North,0,4.3,5.1,58,0.00,,,0.00,WUHU216HW,2013-07-12 02:37:00,
2013-07-11 19:39:00,65.9,50.7,30.05,North,0,3.4,4.9,58,0.00,,,0.00,WUHU216HW,2013-07-12 02:39:00,
2013-07-11 19:40:00,65.7,50.1,30.05,North,0,2.7,5.8,57,0.00,,,0.00,WUHU216HW,2013-07-12 02:40:00,
2013-07-11 19:43:00,65.7,50.1,30.05,North,0,3.1,5.8,57,0.00,,,0.00,WUHU216HW,2013-07-12 02:43:00,
2013-07-11 19:45:00,65.7,50.1,30.04,North,0,3.6,5.8,57,0.00,,,0.00,WUHU216HW,2013-07-12 02:45:00,
2013-07-11 19:46:00,65.7,50.1,30.04,North,0,3.6,5.8,57,0.00,,,0.00,WUHU216HW,2013-07-12 02:46:00,
2013-07-11 19:48:00,65.7,50.1,30.04,NW,315,4.5,5.8,57,0.00,,,0.00,WUHU216HW,2013-07-12 02:48:00,
2013-07-11 19:50:00,65.5,49.9,30.04,NNW,338,2.5,4.5,57,0.00,,,0.00,WUHU216HW,2013-07-12 02:50:00,
2013-07-11 19:51:00,65.5,49.9,30.04,North,0,1.8,4.5,57,0.00,,,0.00,WUHU216HW,2013-07-12 02:51:00,
2013-07-11 19:53:00,65.5,48.9,30.04,NW,315,5.1,5.1,55,0.00,,,0.00,WUHU216HW,2013-07-12 02:53:00,
2013-07-11 19:55:00,65.3,48.7,30.04,NNW,338,3.8,6.0,55,0.00,,,0.00,WUHU216HW,2013-07-12 02:55:00,
2013-07-11 19:56:00,65.3,48.7,30.04,NNW,338,5.4,6.0,55,0.00,,,0.00,WUHU216HW,2013-07-12 02:56:00,
2013-07-11 19:57:00,65.3,48.7,30.04,NNW,338,4.0,6.9,55,0.00,,,0.00,WUHU216HW,2013-07-12 02:57:00,
2013-07-11 19:58:00,65.2,48.5,30.04,NNW,338,2.0,6.9,55,0.00,,,0.00,WUHU216HW,2013-07-12 02:58:00,
2013-07-11 20:00:00,65.2,49.0,30.05,WNW,293,3.4,6.9,56,0.00,,,0.00,WUHU216HW,2013-07-12 03:00:00,
2013-07-11 20:01:00,65.2,49.0,30.04,WNW,293,3.4,6.9,56,0.00,,,0.00,WUHU216HW,2013-07-12 03:01:00,
2013-07-11 20:03:00,65.2,49.0,30.04,NNW,338,3.8,6.9,56,0.00,,,0.00,WUHU216HW,2013-07-12 03:03:00,
2013-07-11 20:04:00,65.2,49.0,30.04,NW,315,4.3,6.9,56,0.00,,,0.00,WUHU216HW,2013-07-12 03:04:00,
2013-07-11 20:05:00,65.0,48.8,30.04,NNW,338,3.8,6.9,56,0.00,,,0.00,WUHU216HW,2013-07-12 03:05:00,
2013-07-11 20:06:00,65.0,48.8,30.04,NNW,338,2.5,6.9,56,0.00,,,0.00,WUHU216HW,2013-07-12 03:06:00,
2013-07-11 20:08:00,65.0,48.8,30.04,NNW,338,3.8,5.4,56,0.00,,,0.00,WUHU216HW,2013-07-12 03:08:00,
2013-07-11 20:09:00,64.8,49.2,30.04,NNW,338,4.9,5.4,57,0.00,,,0.00,WUHU216HW,2013-07-12 03:09:00,
2013-07-11 20:10:00,64.8,48.6,30.05,NNW,338,2.5,5.4,56,0.00,,,0.00,WUHU216HW,2013-07-12 03:10:00,
2013-07-11 20:11:00,64.8,48.6,30.04,North,0,2.7,5.4,56,0.00,,,0.00,WUHU216HW,2013-07-12 03:11:00,
2013-07-11 20:13:00,64.8,48.6,30.04,NNW,338,4.9,5.6,56,0.00,,,0.00,WUHU216HW,2013-07-12 03:13:00,
2013-07-11 20:15:00,64.6,48.4,30.04,WNW,293,1.6,5.6,56,0.00,,,0.00,WUHU216HW,2013-07-12 03:15:00,
2013-07-11 20:16:00,64.6,49.0,30.04,NW,315,4.3,5.6,57,0.00,,,0.00,WUHU216HW,2013-07-12 03:16:00,
2013-07-11 20:19:00,64.6,48.4,30.04,NNW,338,2.9,6.3,56,0.00,,,0.00,WUHU216HW,2013-07-12 03:19:00,
2013-07-11 20:20:00,64.4,48.2,30.04,NNW,338,3.8,6.3,56,0.00,,,0.00,WUHU216HW,2013-07-12 03:20:00,
2013-07-11 20:21:00,64.4,48.8,30.04,NNW,338,5.4,6.3,57,0.00,,,0.00,WUHU216HW,2013-07-12 03:21:00,
2013-07-11 20:22:00,64.3,48.6,30.04,NW,315,5.1,6.3,57,0.00,,,0.00,WUHU216HW,2013-07-12 03:22:00,
2013-07-11 20:24:00,64.3,49.1,30.04,NW,315,2.9,6.3,58,0.00,,,0.00,WUHU216HW,2013-07-12 03:24:00,
2013-07-11 20:25:00,64.3,49.1,30.04,NW,315,4.0,6.3,58,0.00,,,0.00,WUHU216HW,2013-07-12 03:25:00,
2013-07-11 20:26:00,64.1,49.0,30.04,NNW,338,4.0,6.3,58,0.00,,,0.00,WUHU216HW,2013-07-12 03:26:00,
2013-07-11 20:27:00,64.1,48.4,30.04,NNW,338,4.3,5.4,57,0.00,,,0.00,WUHU216HW,2013-07-12 03:27:00,
2013-07-11 20:29:00,64.1,49.0,30.04,North,0,2.9,5.4,58,0.00,,,0.00,WUHU216HW,2013-07-12 03:29:00,
2013-07-11 20:30:00,64.1,49.0,30.04,NW,315,3.8,5.4,58,0.00,,,0.00,WUHU216HW,2013-07-12 03:30:00,
2013-07-11 20:32:00,64.1,48.4,30.04,NNW,338,2.5,5.1,57,0.00,,,0.00,WUHU216HW,2013-07-12 03:32:00,
2013-07-11 20:33:00,63.9,49.2,30.04,NW,315,4.7,5.1,59,0.00,,,0.00,WUHU216HW,2013-07-12 03:33:00,
2013-07-11 20:35:00,63.9,48.8,30.04,NW,315,2.2,6.3,58,0.00,,,0.00,WUHU216HW,2013-07-12 03:35:00,
2013-07-11 20:38:00,63.7,48.6,30.04,NNW,338,5.8,6.3,58,0.00,,,0.00,WUHU216HW,2013-07-12 03:38:00,
2013-07-11 20:40:00,63.7,48.2,30.04,NW,315,3.8,6.3,57,0.00,,,0.00,WUHU216HW,2013-07-12 03:40:00,
2013-07-11 20:43:00,63.5,49.4,30.04,NNW,338,4.7,6.3,60,0.00,,,0.00,WUHU216HW,2013-07-12 03:43:00,
2013-07-11 20:45:00,63.5,49.0,30.04,NNW,338,4.7,6.0,59,0.00,,,0.00,WUHU216HW,2013-07-12 03:45:00,
2013-07-11 20:46:00,63.5,49.0,30.04,NW,315,5.4,6.0,59,0.00,,,0.00,WUHU216HW,2013-07-12 03:46:00,
2013-07-11 20:48:00,63.4,48.8,30.04,NNW,338,5.6,6.7,59,0.00,,,0.00,WUHU216HW,2013-07-12 03:48:00,
2013-07-11 20:50:00,63.4,48.8,30.04,NW,315,2.9,6.7,59,0.00,,,0.00,WUHU216HW,2013-07-12 03:50:00,
2013-07-11 20:51:00,63.4,50.1,30.04,NW,315,4.5,6.7,62,0.00,,,0.00,WUHU216HW,2013-07-12 03:51:00,
2013-07-11 20:53:00,63.4,50.1,30.04,NW,315,6.5,6.7,62,0.00,,,0.00,WUHU216HW,2013-07-12 03:53:00,
2013-07-11 20:54:00,63.4,49.2,30.05,NNW,338,5.4,6.7,60,0.00,,,0.00,WUHU216HW,2013-07-12 03:54:00,
2013-07-11 20:55:00,63.4,49.2,30.05,NW,315,4.5,6.7,60,0.00,,,0.00,WUHU216HW,2013-07-12 03:55:00,
2013-07-11 20:56:00,63.4,49.2,30.05,NW,315,6.3,6.7,60,0.00,,,0.00,WUHU216HW,2013-07-12 03:56:00,
2013-07-11 20:58:00,63.2,50.8,30.05,NW,315,5.4,6.7,64,0.00,,,0.00,WUHU216HW,2013-07-12 03:58:00,
2013-07-11 20:59:00,63.2,50.8,30.05,NW,315,6.5,6.7,64,0.00,,,0.00,WUHU216HW,2013-07-12 03:59:00,
2013-07-11 21:00:00,63.2,49.5,30.05,NW,315,5.6,6.7,61,0.00,,,0.00,WUHU216HW,2013-07-12 04:00:00,
2013-07-11 21:01:00,63.2,49.5,30.04,NW,315,6.3,6.7,61,0.00,,,0.00,WUHU216HW,2013-07-12 04:01:00,
2013-07-11 21:06:00,63.0,49.0,30.04,NNW,338,4.0,6.7,60,0.00,,,0.00,WUHU216HW,2013-07-12 04:06:00,
2013-07-11 21:11:00,62.6,49.1,30.04,NW,315,3.4,6.3,61,0.00,,,0.00,WUHU216HW,2013-07-12 04:11:00,
2013-07-11 21:16:00,62.6,49.1,30.04,NW,315,8.1,8.1,61,0.00,,,0.00,WUHU216HW,2013-07-12 04:16:00,
2013-07-11 21:21:00,62.5,49.2,30.04,NW,315,5.4,8.1,62,0.00,,,0.00,WUHU216HW,2013-07-12 04:21:00,
2013-07-11 21:22:00,62.3,49.5,30.04,NW,315,5.1,8.1,63,0.00,,,0.00,WUHU216HW,2013-07-12 04:22:00,
2013-07-11 21:26:00,62.3,49.5,30.04,NNW,338,4.7,6.9,63,0.00,,,0.00,WUHU216HW,2013-07-12 04:26:00,
2013-07-11 21:27:00,62.3,49.5,30.04,NW,315,5.1,6.9,63,0.00,,,0.00,WUHU216HW,2013-07-12 04:27:00,
2013-07-11 21:31:00,62.1,49.8,30.05,NNW,338,6.0,6.9,64,0.00,,,0.00,WUHU216HW,2013-07-12 04:31:00,
2013-07-11 21:32:00,62.1,49.3,30.05,NNW,338,5.1,6.9,63,0.00,,,0.00,WUHU216HW,2013-07-12 04:32:00,
2013-07-11 21:36:00,61.9,49.2,30.05,NNW,338,4.0,6.3,63,0.00,,,0.00,WUHU216HW,2013-07-12 04:36:00,
2013-07-11 21:37:00,61.7,49.4,30.05,NW,315,5.1,6.3,64,0.00,,,0.00,WUHU216HW,2013-07-12 04:37:00,
2013-07-11 21:41:00,61.6,49.3,30.05,NW,315,6.3,7.6,64,0.00,,,0.00,WUHU216HW,2013-07-12 04:41:00,
2013-07-11 21:42:00,61.6,50.1,30.05,NW,315,6.3,7.6,66,0.00,,,0.00,WUHU216HW,2013-07-12 04:42:00,
2013-07-11 21:46:00,61.2,49.4,30.05,North,0,5.4,7.8,65,0.00,,,0.00,WUHU216HW,2013-07-12 04:46:00,
2013-07-11 21:47:00,61.2,49.4,30.05,NW,315,5.1,7.8,65,0.00,,,0.00,WUHU216HW,2013-07-12 04:47:00,
2013-07-11 21:51:00,61.0,49.2,30.05,NNW,338,5.4,7.8,65,0.00,,,0.00,WUHU216HW,2013-07-12 04:51:00,
2013-07-11 21:52:00,60.8,49.1,30.05,NNW,338,5.4,7.8,65,0.00,,,0.00,WUHU216HW,2013-07-12 04:52:00,
2013-07-11 21:56:00,60.7,48.9,30.05,NW,315,5.8,7.6,65,0.00,,,0.00,WUHU216HW,2013-07-12 04:56:00,
2013-07-11 21:57:00,60.7,49.7,30.05,NW,315,5.8,7.6,67,0.00,,,0.00,WUHU216HW,2013-07-12 04:57:00,
2013-07-11 22:01:00,60.5,49.2,30.05,NNW,338,3.8,9.8,66,0.00,,,0.00,WUHU216HW,2013-07-12 05:01:00,
2013-07-11 22:02:00,60.5,49.5,30.05,NW,315,4.3,9.8,67,0.00,,,0.00,WUHU216HW,2013-07-12 05:02:00,
2013-07-11 22:06:00,60.1,49.1,30.05,NW,315,4.0,9.8,67,0.00,,,0.00,WUHU216HW,2013-07-12 05:06:00,
2013-07-11 22:07:00,60.1,49.6,30.05,NW,315,6.7,9.8,68,0.00,,,0.00,WUHU216HW,2013-07-12 05:07:00,
2013-07-11 22:11:00,59.8,48.8,30.05,North,0,4.9,7.2,67,0.00,,,0.00,WUHU216HW,2013-07-12 05:11:00,
2013-07-11 22:12:00,59.8,48.8,30.05,North,0,4.9,7.2,67,0.00,,,0.00,WUHU216HW,2013-07-12 05:12:00,
2013-07-11 22:16:00,59.4,48.4,30.05,NNW,338,4.7,9.4,67,0.00,,,0.00,WUHU216HW,2013-07-12 05:16:00,
2013-07-11 22:17:00,59.6,49.1,30.05,NNW,338,5.4,9.4,68,0.00,,,0.00,WUHU216HW,2013-07-12 05:17:00,
2013-07-11 22:21:00,59.4,48.4,30.05,NNW,338,4.7,9.4,67,0.00,,,0.00,WUHU216HW,2013-07-12 05:21:00,
2013-07-11 22:22:00,59.4,49.2,30.05,NW,315,6.9,9.4,69,0.00,,,0.00,WUHU216HW,2013-07-12 05:22:00,
2013-07-11 22:26:00,59.2,49.1,30.05,NW,315,8.5,8.5,69,0.00,,,0.00,WUHU216HW,2013-07-12 05:26:00,
2013-07-11 22:27:00,59.2,49.1,30.05,NW,315,7.4,8.5,69,0.00,,,0.00,WUHU216HW,2013-07-12 05:27:00,
2013-07-11 22:32:00,59.0,49.3,30.05,NW,315,6.5,8.5,70,0.00,,,0.00,WUHU216HW,2013-07-12 05:32:00,
2013-07-11 22:33:00,59.0,48.9,30.05,NNW,338,6.3,8.5,69,0.00,,,0.00,WUHU216HW,2013-07-12 05:33:00,
2013-07-11 22:36:00,58.9,49.1,30.05,NNW,338,6.9,8.5,70,0.00,,,0.00,WUHU216HW,2013-07-12 05:36:00,
2013-07-11 22:37:00,58.9,49.1,30.05,NNW,338,6.9,7.6,70,0.00,,,0.00,WUHU216HW,2013-07-12 05:37:00,
2013-07-11 22:38:00,58.7,49.0,30.05,NW,315,6.3,7.6,70,0.00,,,0.00,WUHU216HW,2013-07-12 05:38:00,
2013-07-11 22:41:00,58.7,49.3,30.05,WNW,293,6.5,7.6,71,0.00,,,0.00,WUHU216HW,2013-07-12 05:41:00,
2013-07-11 22:42:00,58.7,49.3,30.05,WNW,293,8.1,8.1,71,0.00,,,0.00,WUHU216HW,2013-07-12 05:42:00,
2013-07-11 22:43:00,58.7,50.0,30.05,NNW,338,7.4,8.1,73,0.00,,,0.00,WUHU216HW,2013-07-12 05:43:00,
2013-07-11 22:46:00,58.5,48.8,30.05,NNW,338,4.0,8.1,70,0.00,,,0.00,WUHU216HW,2013-07-12 05:46:00,
2013-07-11 22:47:00,58.5,48.8,30.05,NNW,338,4.0,8.1,70,0.00,,,0.00,WUHU216HW,2013-07-12 05:47:00,
2013-07-11 22:49:00,58.3,49.0,30.04,NNW,338,4.9,8.1,71,0.00,,,0.00,WUHU216HW,2013-07-12 05:49:00,
2013-07-11 22:52:00,58.1,49.1,30.05,North,0,3.8,8.1,72,0.00,,,0.00,WUHU216HW,2013-07-12 05:52:00,
2013-07-11 22:54:00,58.0,48.6,30.04,NNW,338,3.4,7.6,71,0.00,,,0.00,WUHU216HW,2013-07-12 05:54:00,
2013-07-11 22:57:00,58.0,49.3,30.04,NNW,338,4.7,7.6,73,0.00,,,0.00,WUHU216HW,2013-07-12 05:57:00,
2013-07-11 22:59:00,58.0,49.0,30.04,NNW,338,5.6,7.6,72,0.00,,,0.00,WUHU216HW,2013-07-12 05:59:00,
2013-07-11 23:02:00,57.8,48.8,30.05,NW,315,4.0,6.9,72,0.00,,,0.00,WUHU216HW,2013-07-12 06:02:00,
2013-07-11 23:04:00,57.8,49.1,30.05,NW,315,4.0,6.9,73,0.00,,,0.00,WUHU216HW,2013-07-12 06:04:00,
2013-07-11 23:07:00,57.6,48.6,30.05,NW,315,5.4,6.9,72,0.00,,,0.00,WUHU216HW,2013-07-12 06:07:00,
2013-07-11 23:08:00,57.6,49.0,30.05,NW,315,6.3,6.9,73,0.00,,,0.00,WUHU216HW,2013-07-12 06:08:00,
2013-07-11 23:09:00,57.6,49.0,30.05,WNW,293,5.8,6.9,73,0.00,,,0.00,WUHU216HW,2013-07-12 06:09:00,
2013-07-11 23:12:00,57.4,48.8,30.05,NNW,338,3.8,7.2,73,0.00,,,0.00,WUHU216HW,2013-07-12 06:12:00,
2013-07-11 23:13:00,57.4,48.8,30.05,NNW,338,4.0,7.2,73,0.00,,,0.00,WUHU216HW,2013-07-12 06:13:00,
2013-07-11 23:14:00,57.2,48.6,30.05,NNW,338,3.1,7.2,73,0.00,,,0.00,WUHU216HW,2013-07-12 06:14:00,
2013-07-11 23:17:00,57.2,48.2,30.05,WNW,293,2.5,7.2,72,0.00,,,0.00,WUHU216HW,2013-07-12 06:17:00,
2013-07-11 23:18:00,57.2,48.2,30.05,WNW,293,2.5,7.2,72,0.00,,,0.00,WUHU216HW,2013-07-12 06:18:00,
2013-07-11 23:19:00,57.2,48.2,30.05,NW,315,1.8,7.2,72,0.00,,,0.00,WUHU216HW,2013-07-12 06:19:00,
2013-07-11 23:22:00,56.9,47.9,30.05,NW,315,2.5,6.3,72,0.00,,,0.00,WUHU216HW,2013-07-12 06:22:00,
2013-07-11 23:23:00,56.9,48.2,30.05,NW,315,3.1,6.3,73,0.00,,,0.00,WUHU216HW,2013-07-12 06:23:00,
2013-07-11 23:24:00,56.9,48.2,30.05,NNW,338,2.5,6.3,73,0.00,,,0.00,WUHU216HW,2013-07-12 06:24:00,
2013-07-11 23:27:00,56.7,48.1,30.05,NNE,23,0.9,3.4,73,0.00,,,0.00,WUHU216HW,2013-07-12 06:27:00,
2013-07-11 23:28:00,56.7,47.7,30.05,NNE,23,0.9,3.4,72,0.00,,,0.00,WUHU216HW,2013-07-12 06:28:00,
2013-07-11 23:29:00,56.7,48.1,30.05,NW,315,2.5,3.4,73,0.00,,,0.00,WUHU216HW,2013-07-12 06:29:00,
2013-07-11 23:32:00,56.5,48.0,30.05,NNW,338,1.6,3.1,73,0.00,,,0.00,WUHU216HW,2013-07-12 06:32:00,
2013-07-11 23:33:00,56.5,48.0,30.05,NNE,23,1.1,3.1,73,0.00,,,0.00,WUHU216HW,2013-07-12 06:33:00,
2013-07-11 23:34:00,56.5,47.6,30.05,ENE,68,0.0,2.7,72,0.00,,,0.00,WUHU216HW,2013-07-12 06:34:00,
2013-07-11 23:38:00,56.2,47.3,30.05,South,180,2.0,2.5,72,0.00,,,0.00,WUHU216HW,2013-07-12 06:38:00,
2013-07-11 23:39:00,56.2,47.6,30.05,SE,135,1.8,2.5,73,0.00,,,0.00,WUHU216HW,2013-07-12 06:39:00,
2013-07-11 23:43:00,55.8,47.3,30.05,SSE,158,1.1,2.0,73,0.00,,,0.00,WUHU216HW,2013-07-12 06:43:00,
2013-07-11 23:44:00,55.8,47.3,30.05,SE,135,0.0,2.0,73,0.00,,,0.00,WUHU216HW,2013-07-12 06:44:00,
2013-07-11 23:45:00,55.8,47.3,30.05,ESE,113,0.0,2.0,73,0.00,,,0.00,WUHU216HW,2013-07-12 06:45:00,
2013-07-11 23:48:00,55.6,46.7,30.05,SSE,158,0.0,1.8,72,0.00,,,0.00,WUHU216HW,2013-07-12 06:48:00,
2013-07-11 23:49:00,55.4,46.9,30.05,ESE,113,1.1,1.8,73,0.00,,,0.00,WUHU216HW,2013-07-12 06:49:00,
2013-07-11 23:50:00,55.4,47.3,30.05,SE,135,0.9,1.1,74,0.00,,,0.00,WUHU216HW,2013-07-12 06:50:00,
2013-07-11 23:53:00,55.3,46.7,30.05,SE,135,0.0,1.1,73,0.00,,,0.00,WUHU216HW,2013-07-12 06:53:00,
2013-07-11 23:54:00,55.1,46.6,30.05,SE,135,0.0,1.1,73,0.00,,,0.00,WUHU216HW,2013-07-12 06:54:00,
2013-07-11 23:55:00,55.1,46.6,30.05,ESE,113,1.1,1.1,73,0.00,,,0.00,WUHU216HW,2013-07-12 06:55:00,
2013-07-11 23:58:00,54.9,46.7,30.05,North,0,1.1,1.1,74,0.00,,,0.00,WUHU216HW,2013-07-12 06:58:00,
2013-07-11 23:59:00,54.9,46.5,30.05,NNE,23,2.5,2.5,73,0.00,,,0.00,WUHU216HW,2013-07-12 06:59:00,